GFSWCAN_850_temp_132.txt.gz
Temp
-1 -1 -1 -1 -1 -1 -1 -1 -1 -1 -1 -1 -0 0 0 1 2 3 4 5 5 2 1 2 3 4 3 6 6 3 4 4 5 6 7 7 7 7 7 6 5 6 6 6 6 6 5 2 4 4 -1 -1 -1 -1
-1 -1 -1 -1 -1 -2 -1 -1 -2 -1 -1 -1 -0 0 0 1 2 3 4 4 4 3 1 2 3 4 4 4 3 2 4 4 5 6 6 7 6 6 8 6 6 4 6 6 5 3 1 1 -1 -2 -2 -2 -3 -3
-1 -1 -1 -1 -1 -2 -2 -2 -2 -1 -1 -0 -0 0 0 1 2 3 4 4 4 1 2 3 1 2 3 3 4 4 2 2 2 2 5 5 6 6 6 7 5 3 3 3 3 1 1 -0 -1 -2 -2 -3 -4 -4
-1 -1 -1 -1 -1 -1 -2 -2 -2 -2 -1 -0 0 0 0 1 2 3 3 4 4 3 3 1 1 2 2 3 3 4 3 2 1 3 4 5 6 4 6 6 6 5 4 2 1 0 -1 -1 -2 -2 -4 -4 -5 -6
-1 -1 -1 -1 -2 -2 -2 -2 -2 -2 -2 -2 -2 -1 0 1 2 2 3 3 3 3 3 2 1 1 2 2 2 2 2 2 3 3 4 4 4 5 5 5 5 4 2 2 2 0 0 -2 -3 -3 -4 -4 -5 -5
-1 -1 -2 -2 -2 -2 -2 -2 -2 -2 -2 -2 -1 -1 -0 0 1 2 2 3 3 3 3 3 0 0 1 2 1 1 2 2 2 3 3 2 1 4 4 5 2 1 0 0 -1 -2 -2 -4 -4 -4 -5 -6 -6 -7
-1 -1 -2 -2 -2 -2 -2 -2 -2 -2 -2 -2 -2 -1 -1 0 1 2 0 1 3 3 2 3 2 -1 -0 1 1 1 1 2 3 3 3 4 3 3 3 4 2 -0 -1 -1 -2 -3 -4 -4 -5 -6 -6 -7 -8 -8
-2 -2 -2 -2 -2 -2 -2 -2 -3 -2 -3 -2 -2 -1 -1 -0 1 -1 -0 2 3 3 2 3 1 0 -0 2 2 1 2 2 2 2 2 3 2 3 3 2 0 -1 -1 -3 -3 -3 -3 -5 -6 -7 -7 -8 -8 -8
-1 -2 -2 -2 -2 -2 -3 -3 -3 -3 -3 -3 -2 -2 -1 0 -1 -1 -0 1 2 2 1 1 3 2 0 1 1 1 1 2 1 3 3 2 3 2 3 1 -1 -1 -1 -3 -4 -4 -5 -6 -7 -7 -8 -8 -8 -9
-2 -2 -2 -2 -2 -3 -3 -3 -3 -3 -3 -3 -2 -1 -2 -2 -1 -0 1 1 1 0 -1 2 1 1 2 1 1 2 1 2 1 2 1 2 3 -2 -1 1 -1 -1 -3 -3 -4 -5 -5 -6 -7 -7 -8 -8 -9 -9
-2 -2 -2 -2 -3 -3 -3 -3 -4 -3 -2 -2 -2 -4 -3 -2 -2 -2 -2 -0 -1 0 -0 0 2 1 -0 3 1 0 1 1 1 2 2 3 3 -0 -3 -3 -3 -3 -4 -3 -4 -3 -4 -5 -7 -8 -9 -10 -10 -11
-2 -2 -2 -2 -3 -3 -3 -3 -3 -3 -2 -2 -2 -2 -2 -2 -2 -1 -1 -1 1 1 -1 1 1 1 -1 0 1 0 1 2 2 1 1 3 3 -3 -4 -5 -4 -4 -5 -5 -5 -6 -6 -7 -8 -9 -10 -10 -10 -10
-2 -2 -2 -3 -3 -2 -2 -3 -2 -2 -2 -1 -1 -2 -2 -3 -1 -0 -2 -0 0 -1 -2 -1 -0 -1 -0 0 0 1 1 2 2 1 2 4 -1 -4 -4 -5 -6 -6 -5 -5 -6 -6 -7 -7 -8 -8 -8 -9 -9 -10
-2 -2 -2 -3 -3 -3 -3 -2 -2 -2 -1 -1 -2 -3 -2 -2 -2 -1 0 0 -2 -2 -2 -1 -1 1 0 0 -0 1 1 2 1 2 3 4 -3 -5 -5 -6 -7 -6 -6 -6 -6 -7 -7 -7 -8 -8 -9 -9 -10 -10
-2 -2 -3 -3 -4 -3 -3 -3 -2 -1 -1 -3 -2 -3 -3 -4 -4 -4 -4 -2 -3 -3 -2 -1 0 2 1 0 1 1 0 1 2 3 3 -0 -4 -6 -7 -7 -6 -5 -5 -6 -7 -7 -7 -8 -8 -8 -9 -9 -10 -10
-3 -3 -3 -4 -4 -3 -2 -2 -1 -1 -2 -3 -4 -3 -5 -2 -3 -3 -3 -3 -3 -2 -1 -0 1 1 1 2 1 1 2 2 3 3 -0 -3 -4 -5 -5 -5 -5 -5 -6 -6 -7 -7 -8 -8 -8 -9 -9 -10 -10 -11
-4 -4 -4 -4 -4 -4 -3 -2 -1 -2 -3 -3 -4 -5 -4 -3 -3 -4 -3 -3 -2 -2 0 1 1 1 1 2 1 3 2 3 1 -1 -1 -2 -2 -3 -4 -4 -5 -6 -6 -7 -7 -8 -8 -9 -9 -10 -10 -10 -11 -11
-4 -4 -4 -4 -5 -3 -2 -2 -2 -3 -3 -5 -2 -5 -5 -4 -3 -4 -4 -3 -2 -2 -1 0 1 1 1 1 2 2 1 -0 0 -1 -1 -1 -2 -3 -4 -4 -5 -6 -7 -7 -8 -8 -8 -9 -9 -10 -10 -10 -11 -12
-4 -4 -4 -5 -4 -3 -3 -3 -3 -3 -4 -5 -4 -4 -4 -3 -3 -2 -3 -3 -2 -2 -2 -2 -0 1 2 2 1 1 1 0 -1 -1 -1 -2 -3 -3 -4 -5 -5 -6 -7 -7 -8 -8 -8 -9 -10 -10 -11 -11 -12 -13
-5 -5 -4 -4 -4 -3 -4 -4 -3 -3 -2 -4 -4 -5 -4 -4 -3 -3 -2 -3 -3 -3 -2 -1 0 0 0 1 1 1 2 2 1 -1 -2 -3 -4 -5 -5 -5 -6 -7 -8 -8 -9 -9 -9 -10 -10 -11 -11 -11 -13 -13
-5 -5 -5 -5 -4 -4 -4 -4 -4 -4 -5 -4 -5 -4 -4 -5 -4 -4 -4 -4 -4 -3 -1 -1 -2 -2 -1 -0 1 1 1 1 1 -0 -1 -2 -3 -5 -6 -6 -7 -7 -8 -8 -9 -9 -9 -10 -10 -10 -11 -11 -12 -13
-5 -4 -4 -4 -4 -5 -4 -5 -4 -5 -4 -5 -4 -4 -4 -4 -4 -4 -5 -4 -3 -3 -5 -5 -5 -3 -2 -2 -1 -1 -0 -0 -0 -1 -1 -2 -2 -4 -5 -6 -7 -8 -8 -8 -9 -8 -8 -10 -11 -11 -12 -13 -12 -13
-5 -4 -4 -4 -4 -5 -5 -5 -4 -4 -3 -4 -5 -4 -4 -4 -5 -6 -5 -5 -6 -7 -7 -6 -5 -5 -4 -3 -2 -2 -1 -1 -2 -2 -2 -3 -3 -4 -6 -6 -6 -7 -8 -8 -8 -9 -8 -9 -10 -12 -12 -13 -12 -12
-4 -4 -4 -4 -5 -6 -6 -5 -4 -4 -4 -3 -3 -4 -4 -4 -6 -5 -3 -5 -8 -8 -8 -8 -9 -8 -7 -5 -5 -4 -3 -3 -3 -4 -4 -4 -4 -5 -6 -6 -6 -7 -7 -8 -8 -9 -9 -10 -10 -11 -12 -11 -12 -12
-4 -5 -5 -7 -7 -6 -5 -4 -4 -3 -4 -4 -4 -4 -4 -6 -3 -4 -4 -6 -8 -9 -10 -10 -9 -9 -8 -8 -7 -6 -5 -5 -5 -5 -5 -5 -6 -6 -6 -7 -7 -8 -8 -9 -8 -9 -9 -10 -11 -11 -11 -11 -12 -12
-5 -6 -5 -5 -5 -5 -4 -4 -4 -4 -4 -4 -4 -6 -6 -4 -4 -4 -6 -9 -10 -10 -11 -11 -11 -10 -9 -8 -8 -8 -7 -6 -6 -6 -6 -6 -6 -7 -7 -7 -7 -7 -7 -8 -9 -9 -9 -10 -10 -11 -11 -11 -12 -12
-5 -4 -5 -5 -5 -4 -4 -4 -5 -4 -4 -4 -4 -5 -5 -4 -4 -7 -11 -11 -11 -10 -10 -10 -10 -11 -10 -9 -9 -8 -7 -7 -7 -7 -7 -7 -7 -7 -8 -8 -8 -9 -8 -8 -8 -9 -9 -10 -10 -11 -11 -11 -11 -12
-5 -6 -5 -5 -5 -5 -4 -3 -3 -3 -3 -6 -6 -5 -4 -5 -7 -13 -13 -11 -11 -10 -10 -10 -10 -10 -9 -9 -9 -9 -8 -8 -8 -8 -8 -8 -8 -8 -8 -9 -9 -9 -9 -9 -9 -9 -10 -10 -10 -11 -11 -11 -11 -12
-6 -6 -6 -6 -6 -5 -5 -4 -4 -7 -7 -6 -4 -6 -10 -15 -15 -13 -13 -12 -11 -11 -10 -10 -10 -10 -10 -9 -9 -9 -9 -9 -10 -9 -9 -9 -9 -9 -9 -9 -9 -9 -9 -9 -10 -10 -10 -11 -11 -11 -11 -11 -12 -12
-6 -6 -6 -7 -6 -4 -7 -8 -9 -9 -9 -9 -10 -13 -15 -16 -15 -14 -14 -13 -12 -11 -11 -11 -11 -10 -10 -10 -10 -10 -10 -10 -10 -10 -10 -10 -10 -9 -9 -9 -10 -10 -10 -10 -10 -10 -11 -11 -11 -11 -12 -12 -12 -13
-8 -8 -7 -7 -7 -9 -10 -9 -9 -10 -10 -11 -11 -12 -14 -17 -16 -16 -15 -14 -14 -13 -13 -12 -12 -11 -11 -11 -10 -11 -11 -11 -10 -10 -10 -10 -10 -10 -10 -10 -10 -10 -10 -10 -10 -11 -11 -11 -12 -12 -12 -13 -13 -13
-9 -8 -7 -8 -9 -11 -10 -11 -10 -10 -11 -11 -13 -14 -15 -15 -16 -18 -17 -16 -15 -14 -14 -14 -13 -13 -12 -12 -12 -12 -12 -12 -11 -11 -11 -11 -11 -11 -11 -11 -11 -11 -11 -11 -11 -11 -12 -12 -13 -13 -13 -14 -14 -15
-10 -10 -10 -10 -10 -10 -11 -10 -10 -11 -11 -12 -15 -16 -17 -16 -18 -20 -19 -18 -17 -16 -15 -15 -15 -14 -13 -13 -13 -13 -12 -12 -12 -12 -12 -12 -12 -12 -12 -12 -12 -12 -12 -13 -13 -13 -13 -14 -14 -14 -15 -15 -16 -16

GFSWCAN_850_temp_138.txt.gz
Temp
-2 -1 -1 -0 -1 -1 -1 -1 -1 -1 -1 -0 -1 -0 0 -0 0 1 2 3 4 4 4 8 8 8 9 8 6 6 7 7 6 7 9 10 10 11 10 10 8 8 8 8 9 9 6 7 6 5 2 2 2 0
-2 -1 -1 -1 -1 -1 -1 -1 -1 -1 -1 -1 -2 -1 -1 -1 1 2 4 3 4 4 3 5 5 5 7 8 7 6 8 8 8 9 10 10 9 10 10 7 10 7 9 8 7 5 5 4 3 3 3 1 1 0
-2 -1 -1 -1 -1 -1 -1 -1 -2 -1 -0 -1 -0 -0 -0 1 2 3 3 4 5 4 4 4 4 4 6 7 7 7 8 7 7 7 10 9 10 10 9 9 8 8 8 6 6 6 5 3 2 1 1 1 0 0
-2 -2 -1 -1 -1 -1 -1 -1 -1 -1 -1 -0 -1 -1 -0 1 2 2 3 4 5 5 5 4 4 4 4 5 6 6 6 6 6 7 8 8 9 9 10 9 9 9 8 5 5 5 3 3 1 -0 -1 -1 -1 -1
-2 -2 -1 -1 -1 -1 -1 -1 -1 -1 -1 -1 -1 -1 1 1 2 3 3 4 3 6 4 4 4 4 4 4 4 5 5 6 7 6 7 8 8 9 9 10 7 8 6 5 5 4 3 2 -0 -1 -1 -2 -2 -2
-2 -1 -1 -1 -1 -1 -2 -1 -1 -1 -1 -0 -0 -0 1 2 3 3 4 5 5 5 5 4 3 4 4 4 4 5 5 6 7 7 6 6 6 7 8 8 7 6 4 4 2 3 1 0 -0 -1 -2 -2 -2 -3
-1 -1 -1 -1 -1 -2 -2 -2 -2 -1 -1 -0 0 1 1 2 3 3 3 4 5 5 4 4 4 2 4 4 5 4 5 6 6 6 7 7 6 6 7 7 6 3 3 2 1 0 -1 -1 -2 -3 -3 -4 -4 -5
-1 -1 -1 -1 -1 -2 -2 -2 -2 -1 -1 -1 -0 0 1 2 2 2 3 4 5 5 6 4 2 3 3 4 4 5 5 6 5 6 6 7 6 7 6 6 4 3 1 0 -0 0 -1 -2 -3 -3 -4 -4 -4 -5
-1 -1 -1 -1 -1 -2 -2 -2 -2 -2 -2 -1 -0 -0 1 1 1 1 3 4 4 4 5 4 3 3 3 4 4 4 5 4 4 5 7 7 6 4 6 5 4 3 1 0 -0 -1 -2 -3 -3 -4 -4 -4 -4 -5
-1 -1 -1 -2 -2 -2 -2 -2 -2 -2 -1 -2 -1 1 1 1 2 3 3 3 3 4 5 5 4 3 4 4 4 3 3 3 3 5 5 4 5 4 5 5 4 3 2 0 -0 -2 -2 -3 -3 -4 -3 -4 -4 -5
-1 -1 -1 -2 -2 -2 -2 -2 -2 -2 -2 -1 -1 -2 -0 1 1 2 2 3 4 4 5 5 4 4 4 4 3 4 3 4 3 4 4 4 4 4 5 4 3 3 2 1 0 -0 -1 -2 -2 -3 -4 -4 -5 -6
-1 -2 -2 -2 -2 -2 -2 -3 -3 -2 -1 -1 -0 -1 1 1 1 1 2 3 5 4 4 4 4 4 3 3 3 3 3 3 3 4 3 4 5 4 4 3 2 1 1 1 0 -0 -1 -2 -3 -3 -5 -6 -6 -7
-1 -1 -2 -2 -2 -3 -3 -3 -2 -1 -1 0 0 0 0 1 1 3 1 3 2 2 2 2 2 2 3 2 2 2 2 3 4 3 4 5 4 3 3 1 0 0 -0 -1 -1 -1 -2 -3 -4 -5 -6 -6 -6 -6
-2 -2 -3 -3 -3 -4 -3 -3 -2 -1 -1 -0 0 -0 1 1 2 1 2 2 1 1 2 2 2 3 2 2 2 2 3 4 2 3 5 5 3 2 1 0 -1 -1 -2 -2 -3 -3 -3 -4 -4 -5 -5 -6 -6 -6
-2 -3 -3 -3 -3 -3 -3 -3 -2 -0 -2 -1 1 -0 -0 -1 -2 -2 -1 -0 -0 1 2 2 3 3 2 0 2 3 2 3 4 5 4 2 2 1 -0 -1 -2 -2 -3 -3 -3 -4 -4 -4 -5 -5 -6 -6 -6 -7
-2 -3 -3 -3 -3 -3 -3 -2 -1 -2 -1 -2 -1 -1 -1 -0 -1 -2 -2 -2 -1 -0 1 2 3 2 2 3 3 3 4 4 5 3 2 0 0 -0 -1 -2 -2 -3 -3 -4 -4 -4 -4 -5 -5 -6 -6 -6 -6 -7
-3 -3 -3 -3 -3 -2 -2 -2 -1 -1 -1 -1 -2 -3 -2 -2 -2 -2 -1 -2 -1 -0 1 3 2 3 4 3 3 5 4 3 3 2 1 -0 -1 -2 -2 -3 -3 -3 -4 -4 -4 -4 -5 -5 -6 -6 -6 -6 -7 -7
-2 -3 -3 -3 -2 -2 -2 -1 -1 -1 -1 -2 -1 -3 -3 -2 -2 -2 -2 -2 -1 0 1 1 2 3 3 3 4 3 2 1 1 -0 -2 -2 -2 -2 -3 -3 -3 -3 -4 -4 -4 -5 -5 -6 -6 -7 -7 -7 -7 -7
-3 -3 -3 -3 -2 -1 -1 -1 -0 -1 -2 -3 -3 -3 -3 -2 -2 -2 -2 -2 -1 -1 0 1 1 3 3 1 1 0 0 1 0 -2 -1 -2 -3 -3 -4 -5 -3 -4 -4 -4 -5 -5 -6 -6 -6 -7 -7 -7 -7 -8
-3 -3 -3 -2 -2 -1 -1 -1 -0 -0 -0 -1 -2 -1 -1 -2 -3 -2 -2 -1 -1 -0 1 1 1 -2 -2 -3 -2 -2 -2 -1 -1 -2 -4 -3 -4 -4 -5 -4 -4 -5 -5 -5 -6 -7 -8 -7 -7 -9 -9 -9 -8 -10
-4 -4 -3 -2 -2 -1 -1 -0 -1 -0 -1 -0 -0 -0 -1 -1 -1 -2 -1 -1 -1 0 1 -2 -3 -4 -3 -3 -3 -2 -3 -1 -1 -1 -0 -3 -3 -4 -6 -5 -6 -6 -7 -7 -7 -8 -9 -8 -7 -8 -9 -10 -10 -10
-4 -4 -3 -2 -2 -2 -2 -1 -0 -0 0 -0 -0 -0 -1 -2 -2 -2 -1 -1 0 -3 -4 -4 -5 -5 -5 -5 -4 -3 -2 -2 -2 -2 -2 -2 -2 -5 -6 -6 -7 -8 -8 -8 -8 -8 -8 -9 -9 -9 -10 -10 -10 -10
-4 -4 -4 -3 -3 -3 -4 -2 -1 -0 -1 -0 -1 -0 -1 -1 -1 -3 -1 -1 -4 -6 -6 -6 -7 -6 -6 -5 -4 -4 -4 -3 -4 -3 -4 -4 -4 -5 -5 -6 -7 -7 -7 -7 -8 -8 -8 -9 -9 -9 -10 -10 -10 -11
-3 -3 -4 -4 -3 -4 -3 -2 -1 -0 -0 -0 0 -1 -0 -1 -3 -3 -1 -3 -5 -6 -7 -7 -7 -6 -5 -5 -5 -5 -5 -6 -5 -4 -5 -5 -5 -5 -5 -6 -6 -7 -7 -7 -7 -8 -8 -8 -9 -9 -10 -10 -10 -10
-2 -4 -4 -4 -3 -3 -2 -2 -2 -0 -1 -1 -1 -1 -1 -3 -2 -2 -1 -4 -6 -7 -8 -9 -8 -8 -7 -7 -7 -7 -6 -7 -6 -6 -5 -5 -5 -5 -6 -6 -7 -7 -7 -8 -7 -8 -8 -8 -9 -9 -10 -10 -10 -10
-2 -4 -2 -2 -3 -1 -1 -2 -2 -1 -1 -1 -1 -2 -3 -2 -2 -2 -4 -7 -8 -10 -10 -10 -10 -9 -8 -9 -9 -8 -8 -8 -8 -7 -6 -7 -7 -6 -7 -7 -7 -7 -8 -8 -8 -8 -8 -9 -9 -9 -10 -10 -10 -10
-3 -3 -3 -3 -2 -1 -1 -2 -1 -1 -2 -2 -1 -3 -2 -2 -2 -6 -10 -11 -11 -12 -12 -11 -11 -11 -10 -10 -10 -10 -10 -9 -8 -8 -8 -8 -8 -8 -8 -8 -8 -8 -8 -8 -9 -9 -9 -9 -9 -10 -10 -10 -10 -11
-3 -3 -3 -3 -3 -2 -2 -2 -2 -2 -1 -2 -2 -2 -2 -4 -6 -11 -13 -12 -12 -11 -12 -11 -11 -11 -10 -10 -10 -10 -10 -9 -9 -8 -8 -8 -8 -8 -8 -8 -8 -9 -9 -9 -9 -10 -10 -10 -10 -10 -10 -10 -10 -10
-4 -4 -4 -4 -4 -3 -2 -2 -3 -5 -6 -4 -3 -4 -8 -13 -14 -14 -13 -13 -13 -13 -12 -12 -12 -11 -10 -9 -10 -11 -11 -10 -9 -8 -7 -8 -9 -10 -10 -9 -10 -9 -9 -9 -9 -10 -11 -11 -10 -10 -10 -10 -10 -11
-4 -5 -4 -3 -3 -2 -5 -6 -6 -7 -8 -8 -8 -11 -13 -15 -15 -15 -15 -14 -14 -14 -14 -14 -13 -12 -12 -11 -11 -12 -11 -11 -10 -10 -11 -11 -11 -11 -10 -10 -11 -11 -10 -11 -11 -10 -10 -10 -10 -11 -11 -11 -11 -11
-5 -5 -4 -4 -3 -5 -7 -8 -8 -8 -8 -9 -9 -9 -12 -15 -16 -16 -15 -16 -16 -15 -15 -15 -15 -14 -14 -13 -13 -13 -13 -12 -12 -11 -11 -11 -11 -11 -11 -11 -10 -11 -11 -11 -11 -11 -11 -11 -11 -11 -11 -12 -12 -12
-6 -5 -4 -4 -5 -8 -8 -8 -7 -7 -8 -9 -10 -11 -13 -12 -13 -17 -17 -17 -17 -17 -17 -16 -16 -15 -15 -15 -14 -14 -14 -13 -13 -12 -12 -12 -12 -12 -12 -11 -12 -12 -12 -12 -12 -12 -12 -12 -12 -12 -12 -12 -13 -14
-6 -6 -6 -6 -6 -6 -7 -7 -7 -7 -7 -9 -10 -11 -14 -13 -15 -18 -19 -18 -18 -18 -17 -16 -16 -16 -16 -16 -15 -15 -15 -15 -13 -13 -13 -13 -13 -13 -13 -13 -14 -14 -14 -14 -14 -14 -14 -14 -14 -14 -14 -15 -15 -15

GFSWCAN_850_temp_141.txt.gz
Temp
-1 -1 -1 -1 -1 -1 -1 -1 -1 -1 -1 -1 -1 -1 -0 -0 1 1 1 2 2 3 3 5 5 5 7 5 3 5 5 5 4 4 5 6 6 7 7 7 6 6 5 4 5 5 4 6 5 4 0 2 1 0
-1 -1 -1 -1 -0 -1 -1 -1 -1 -1 -1 -1 -1 -0 -0 0 -0 -0 0 3 3 2 2 4 4 5 5 6 6 6 6 6 6 3 4 6 5 5 6 5 8 5 6 3 3 2 2 3 2 2 2 1 0 -0
-1 -1 -1 -1 -1 -1 -0 -1 -1 -1 -1 -1 -1 -1 0 -0 -0 -0 1 2 2 2 1 2 3 5 7 7 8 6 6 7 7 7 6 6 7 4 4 5 5 7 7 2 3 2 2 1 1 1 1 0 0 0
-1 -1 -1 -1 -1 -1 -1 -1 -1 -1 -1 -1 -1 -1 -0 0 1 1 2 2 4 3 1 3 4 5 6 7 7 7 7 7 7 7 7 5 5 7 5 6 5 6 4 2 2 2 2 1 1 0 -0 -0 -1 -1
-1 -2 -2 -1 -1 -1 -1 -1 -2 -1 -1 -1 -0 -0 0 1 1 1 3 4 4 4 1 3 4 4 5 6 7 7 7 7 7 6 3 2 6 5 6 5 2 6 2 -0 -1 2 1 0 0 -1 -1 -1 -2 -2
-2 -2 -1 -1 -1 -1 -1 -1 -1 -1 -1 -1 -1 -0 1 2 1 2 3 4 4 4 4 0 3 4 4 5 5 6 6 7 7 5 4 5 6 5 1 2 4 4 5 5 2 3 3 1 -1 -1 -1 -2 -2 -3
-2 -1 -1 -1 -1 -1 -2 -1 -1 -1 -1 -1 -1 0 1 2 2 3 2 3 4 5 4 1 2 4 4 4 5 5 6 6 6 6 5 5 6 6 1 2 3 2 3 2 3 2 -0 -0 -1 -2 -2 -3 -3 -4
-2 -1 -1 -1 -1 -1 -2 -1 -1 -1 -1 -1 -1 0 2 2 3 2 3 4 5 5 4 -0 1 3 4 4 4 5 5 5 5 5 6 4 5 5 1 2 2 2 1 1 1 1 -0 -1 -2 -3 -3 -4 -4 -5
-2 -1 -2 -2 -2 -2 -2 -2 -2 -1 -1 -1 -0 1 2 3 2 3 4 4 5 4 4 1 0 -0 3 4 4 4 4 -1 4 1 3 4 1 1 2 2 2 1 1 1 0 -1 -1 -2 -3 -3 -4 -4 -5 -6
-1 -1 -2 -2 -2 -2 -2 -2 -2 -2 -1 -0 0 1 2 2 3 3 4 5 4 4 5 2 4 -0 3 4 2 2 3 -1 -1 1 4 -0 0 4 4 4 2 1 1 -0 -1 -2 -3 -3 -3 -4 -4 -4 -4 -5
-1 -1 -2 -2 -2 -2 -2 -2 -2 -2 -1 -0 1 -0 1 2 2 3 3 2 4 1 3 4 3 1 4 -0 -2 3 -2 -1 -0 1 0 -0 0 2 4 4 3 2 1 -0 -0 -1 -2 -2 -3 -4 -4 -4 -4 -5
-1 -1 -2 -2 -2 -2 -2 -2 -3 -2 -1 -0 0 1 2 1 2 0 -1 1 2 1 3 2 3 3 3 3 1 2 0 -1 2 2 -1 0 0 4 4 3 3 2 1 0 -0 -1 -2 -2 -3 -3 -4 -4 -4 -5
-2 -2 -2 -3 -2 -2 -2 -3 -1 -0 -0 0 1 1 1 1 -2 -1 -1 1 -1 1 2 3 -1 3 2 2 1 -2 -1 -1 2 -2 -1 0 3 4 3 3 2 1 1 0 0 -0 -1 -2 -3 -3 -4 -4 -5 -5
-2 -2 -3 -3 -3 -3 -2 -1 -1 -1 0 1 1 -4 -3 -3 -2 -1 0 -1 1 1 2 3 2 2 2 -0 -2 -2 -1 -0 -1 -2 1 -1 3 2 2 2 1 1 0 -0 -1 -1 -1 -2 -3 -3 -4 -4 -5 -5
-2 -3 -3 -3 -3 -3 -2 -1 -0 1 -0 -0 -0 -3 -3 -2 -2 -1 -0 -0 0 1 2 2 2 3 -1 -2 1 -1 -2 -0 -0 -0 1 2 2 2 1 1 0 -0 -0 -1 -2 -2 -2 -3 -3 -4 -4 -5 -5 -6
-3 -3 -4 -4 -3 -2 -2 -1 -0 0 -1 -1 -1 -2 -1 -2 -2 -2 -2 -1 -0 1 2 3 -0 -1 -1 -1 0 -1 1 0 -1 0 1 2 1 1 0 -0 -1 -1 -2 -2 -2 -3 -3 -3 -4 -4 -5 -5 -5 -6
-3 -3 -3 -2 -2 -1 -0 -0 -1 -1 -1 -2 -2 -2 -2 -2 -2 -2 -1 -1 -0 1 -0 1 1 1 0 -0 1 0 -1 -0 0 -0 0 0 0 0 -0 -1 -1 -2 -2 -3 -3 -3 -4 -4 -4 -5 -5 -5 -5 -6
-2 -2 -2 -2 -2 -1 -1 -1 -1 -1 -2 -3 -3 -3 -3 -2 -2 -2 -2 -1 -0 -0 0 -1 0 1 -1 1 -1 -2 0 0 1 -1 -2 -3 -1 -1 -1 -1 -2 -2 -3 -3 -3 -3 -4 -4 -4 -4 -5 -6 -6 -6
-2 -3 -2 -2 -1 -1 -1 -0 -1 -2 -3 -3 -2 -2 -2 -2 -2 -2 -1 -1 -0 -0 0 1 -0 -1 -1 -2 -2 -2 -1 -0 -1 -3 -3 -3 -4 -3 -3 -3 -3 -3 -3 -3 -3 -3 -4 -4 -4 -5 -6 -6 -6 -6
-2 -2 -2 -2 -1 -1 -1 -0 -0 -1 -1 -2 -2 -1 -2 -2 -2 -1 -1 -1 -0 0 0 -1 -2 -3 -3 -4 -3 -3 -2 -2 -2 -2 -3 -2 -4 -4 -4 -4 -3 -4 -4 -4 -5 -5 -5 -5 -6 -6 -6 -7 -7 -7
-2 -2 -1 -0 -1 -1 -1 -0 -0 -1 -1 -1 -1 -1 -2 -2 -2 -1 -1 -1 -0 -1 -2 -3 -4 -4 -4 -4 -4 -3 -3 -2 -1 -1 -2 -2 -2 -2 -5 -5 -4 -4 -4 -4 -5 -6 -6 -5 -6 -7 -8 -8 -7 -8
-3 -2 -1 -0 -2 -2 -1 -1 -0 -0 -0 -1 -0 -1 -2 -2 -2 -2 -1 -1 -2 -4 -4 -5 -5 -4 -4 -5 -3 -3 -3 -3 -2 -3 -3 -2 -3 -3 -4 -5 -6 -7 -8 -7 -7 -7 -7 -7 -8 -8 -8 -9 -10 -10
-2 -2 -2 -2 -3 -3 -3 -1 -1 -1 -4 -1 -0 -2 -2 -1 -2 -2 -2 -3 -5 -5 -6 -6 -6 -6 -6 -6 -5 -5 -5 -4 -4 -4 -4 -4 -4 -4 -5 -5 -6 -7 -7 -7 -8 -8 -8 -8 -8 -9 -9 -9 -10 -10
-3 -3 -3 -3 -3 -5 -3 -2 -0 -1 -1 -2 -3 -4 -3 -2 -3 -3 -5 -4 -6 -7 -7 -7 -6 -6 -6 -6 -6 -6 -6 -6 -6 -5 -5 -4 -4 -5 -4 -5 -6 -6 -7 -7 -7 -7 -7 -7 -8 -8 -9 -9 -10 -10
-2 -3 -3 -5 -3 -3 -5 -5 -4 -3 -5 -4 -4 -5 -5 -3 -7 -7 -5 -5 -7 -8 -9 -8 -8 -8 -8 -7 -7 -7 -7 -7 -7 -6 -6 -6 -6 -5 -5 -6 -6 -6 -7 -7 -7 -7 -7 -7 -8 -8 -9 -9 -10 -10
-7 -4 -4 -3 -3 -4 -4 -6 -6 -6 -5 -5 -5 -3 -2 -5 -6 -6 -7 -9 -10 -10 -11 -11 -10 -9 -9 -9 -9 -9 -9 -8 -8 -7 -7 -7 -7 -7 -6 -6 -7 -7 -7 -7 -8 -8 -8 -8 -8 -8 -9 -9 -10 -10
-7 -5 -3 -3 -2 -1 -2 -1 -1 -3 -5 -6 -6 -4 -4 -7 -7 -9 -10 -10 -11 -11 -11 -11 -11 -11 -10 -10 -10 -10 -10 -9 -9 -8 -8 -8 -8 -8 -8 -8 -8 -8 -8 -8 -8 -9 -9 -9 -8 -9 -9 -10 -10 -10
-3 -3 -6 -3 -3 -3 -5 -5 -6 -6 -5 -2 -2 -5 -5 -8 -10 -12 -12 -12 -12 -11 -11 -11 -11 -11 -10 -10 -10 -10 -10 -9 -9 -9 -9 -9 -9 -9 -9 -9 -9 -9 -9 -9 -9 -9 -10 -10 -9 -9 -9 -10 -10 -10
-4 -4 -4 -4 -3 -3 -3 -4 -4 -5 -6 -5 -5 -7 -10 -13 -13 -14 -13 -13 -13 -12 -12 -11 -11 -11 -10 -10 -11 -11 -10 -9 -9 -9 -9 -10 -10 -10 -11 -11 -11 -11 -10 -10 -10 -10 -10 -10 -10 -10 -10 -10 -10 -11
-4 -4 -4 -4 -7 -7 -6 -6 -5 -7 -8 -7 -8 -11 -13 -15 -15 -15 -14 -14 -14 -13 -14 -13 -12 -12 -11 -12 -12 -12 -11 -11 -10 -10 -11 -11 -12 -11 -11 -10 -10 -11 -10 -10 -10 -10 -10 -10 -10 -11 -11 -11 -11 -11
-5 -5 -5 -4 -4 -5 -6 -8 -8 -8 -8 -8 -9 -10 -14 -16 -16 -16 -15 -15 -16 -15 -14 -15 -14 -14 -13 -13 -13 -13 -13 -12 -12 -12 -12 -12 -12 -12 -11 -11 -11 -11 -11 -11 -11 -11 -11 -11 -11 -11 -11 -12 -12 -12
-6 -5 -5 -5 -6 -7 -8 -8 -7 -7 -8 -9 -11 -11 -13 -13 -16 -17 -17 -17 -16 -16 -16 -16 -16 -16 -15 -15 -15 -15 -15 -14 -13 -13 -13 -13 -13 -12 -12 -12 -12 -13 -13 -13 -12 -12 -12 -12 -12 -12 -12 -12 -12 -13
-6 -6 -6 -6 -6 -7 -7 -7 -7 -7 -8 -10 -11 -12 -13 -14 -17 -18 -18 -18 -18 -18 -17 -16 -16 -16 -17 -16 -16 -15 -16 -15 -14 -14 -14 -14 -14 -14 -14 -14 -14 -14 -14 -14 -14 -14 -14 -13 -13 -13 -14 -14 -15 -15

GFSWCAN_850_temp_144.txt.gz
Temp
-1 -1 -0 -1 -0 -0 -0 -1 -1 -1 -1 -1 -1 -1 -1 -0 -0 0 1 1 2 2 3 3 3 4 5 5 3 5 4 4 3 4 5 4 5 6 6 7 6 6 5 4 4 4 4 6 5 4 0 1 1 1
-1 -1 -0 -1 -1 -0 -1 -1 -1 -1 -1 -1 -1 -1 -0 -0 -0 0 1 1 2 2 2 3 4 3 4 5 5 5 4 5 6 3 3 5 5 4 5 5 7 5 5 3 3 2 1 2 4 3 2 1 0 0
-1 -0 -0 -0 -1 -1 -1 -1 -1 -1 -1 -1 -1 -1 -0 -1 0 0 0 2 1 1 1 2 3 4 5 6 6 6 6 7 7 7 4 4 4 3 4 5 5 5 5 1 2 1 0 1 2 2 2 1 0 -0
-2 -1 -0 -1 -1 -1 -1 -1 -1 -1 -1 -1 -1 -1 -0 -1 -0 0 1 1 1 1 1 1 3 4 6 6 6 6 7 7 8 7 5 4 3 5 4 4 4 5 3 1 0 -0 0 1 1 1 0 0 -0 -1
-2 -1 -0 -1 -1 -1 -1 -1 -1 -1 -1 -1 -1 -1 -1 -1 -0 0 1 3 3 4 1 1 2 4 6 6 7 7 7 7 7 5 1 2 4 4 4 4 1 4 1 0 -0 1 0 -0 0 0 -0 -1 -1 -1
-2 -1 -1 -1 -1 -1 -1 -1 -1 -1 -1 -1 -1 -1 -0 -0 0 0 0 3 4 4 4 1 3 4 5 6 6 7 7 7 6 5 3 4 5 4 1 1 3 3 5 6 2 2 2 0 -0 -1 -1 -1 -2 -2
-2 -1 -1 -1 -1 -1 -1 -1 -1 -1 -1 -1 -1 -1 -0 2 2 1 2 3 4 5 4 1 2 4 4 5 5 6 6 6 6 5 4 4 5 5 0 2 2 2 4 5 3 2 -1 -0 -1 -1 -2 -2 -2 -3
-2 -1 -1 -1 -1 -2 -1 -1 -1 -1 -1 -1 -1 -1 0 0 2 3 4 4 5 4 4 -0 1 3 4 4 4 5 5 5 4 4 4 3 5 3 0 2 1 2 2 1 1 2 1 -0 -1 -2 -2 -2 -3 -4
-2 -2 -1 -1 -2 -1 -1 -1 -1 -1 -2 -1 -0 1 1 0 2 3 4 5 5 5 2 0 -0 -0 4 3 3 4 4 -2 3 0 2 2 -1 1 1 1 0 1 1 1 1 1 -0 -1 -2 -2 -3 -3 -3 -5
-2 -1 -1 -2 -1 -1 -1 -1 -1 -1 -1 -1 1 2 2 0 1 4 5 5 4 4 4 0 2 -0 3 2 0 1 2 -2 -1 -0 3 -2 -1 3 3 2 2 2 1 1 -1 -2 -1 -2 -3 -3 -3 -3 -3 -4
-1 -1 -2 -2 -2 -2 -2 -2 -2 -1 -1 -1 1 1 1 2 3 4 3 2 3 0 3 3 3 1 3 -1 -2 1 -4 -2 -0 0 -1 -2 -0 1 2 2 2 2 1 0 1 -0 -1 -1 -2 -3 -4 -4 -4 -4
-2 -2 -2 -2 -2 -2 -2 -2 -1 -1 0 1 1 2 2 2 2 0 -2 0 1 1 2 1 2 3 3 3 1 0 -2 -2 1 -0 -3 -1 -1 3 3 3 2 2 1 0 -0 -0 -1 -2 -2 -3 -3 -4 -4 -4
-2 -2 -2 -2 -2 -3 -2 -2 -1 0 0 1 2 2 1 0 -3 -2 -2 -1 -1 0 2 2 -0 2 2 2 -2 -4 -3 -3 0 -5 -2 -1 1 2 3 3 2 1 1 0 -0 -1 -1 -2 -2 -3 -3 -4 -4 -4
-2 -2 -2 -2 -2 -2 -2 -1 -1 0 1 1 1 -4 -5 -5 -2 -1 -0 -2 0 1 2 3 1 2 1 -1 -3 -3 -1 -2 -4 -4 -0 -3 2 3 3 2 2 1 0 0 -0 -1 -1 -2 -2 -3 -3 -4 -4 -5
-3 -2 -2 -2 -2 -2 -1 -0 0 1 1 -0 -1 -4 -5 -2 -2 -2 -1 -1 0 2 3 2 1 1 -2 -3 -1 -2 -3 -3 -2 -2 -2 2 2 2 2 2 1 1 0 0 -0 -1 -1 -2 -2 -2 -3 -4 -4 -5
-3 -3 -3 -3 -2 -1 -1 0 1 2 -1 -1 -2 -3 -2 -2 -2 -2 -1 -1 1 2 2 3 -1 -2 -2 -2 -1 -2 -0 -2 -1 -0 1 2 2 2 2 1 1 1 0 -0 -1 -1 -2 -2 -2 -3 -3 -4 -5 -5
-2 -3 -3 -3 -1 -1 0 1 0 -1 -2 -2 -3 -3 -2 -2 -2 -2 -2 -1 0 2 -3 -1 -1 1 -1 -1 -0 -2 -2 -0 -1 0 0 1 1 1 1 1 0 -0 -1 -1 -1 -2 -2 -3 -3 -4 -4 -4 -5 -6
-3 -3 -2 -2 -1 -0 1 0 -1 -2 -3 -3 -3 -3 -3 -3 -2 -2 -2 -0 0 0 0 -1 -0 0 -3 -0 -1 -1 -2 -2 -1 -2 -2 -1 -1 -0 -0 -0 -1 -1 -1 -2 -2 -3 -3 -3 -4 -4 -4 -5 -6 -6
-2 -2 -1 -1 -1 -1 -1 -1 -1 -3 -3 -2 -2 -2 -2 -2 -2 -2 -1 -0 0 0 1 1 -1 -2 -3 -3 -3 -3 -2 -1 -2 -3 -4 -4 -3 -2 -2 -2 -2 -2 -3 -3 -3 -3 -3 -4 -4 -5 -5 -6 -6 -6
-2 -2 -2 -1 -1 -1 -0 -0 -1 -1 -2 -2 -2 -2 -2 -2 -2 -1 -1 0 0 0 -1 -2 -3 -4 -3 -4 -3 -3 -2 -2 -2 -3 -3 -3 -4 -3 -3 -3 -4 -4 -4 -4 -4 -4 -4 -4 -4 -5 -6 -6 -7 -7
-2 -1 -0 0 -1 -1 -1 -1 -1 -1 -1 -1 -1 -2 -2 -2 -2 -1 -1 -1 -1 -3 -3 -4 -5 -4 -4 -5 -5 -3 -3 -2 -2 -2 -3 -2 -4 -3 -4 -5 -4 -3 -4 -5 -5 -5 -5 -5 -6 -6 -7 -7 -7 -8
-1 -1 -0 -0 -1 -1 -1 -1 -1 -1 -1 -1 -1 -2 -2 -2 -2 -2 -1 -2 -4 -5 -5 -5 -5 -5 -5 -4 -4 -4 -4 -4 -4 -3 -3 -3 -3 -4 -4 -4 -5 -6 -7 -7 -6 -6 -7 -7 -7 -8 -8 -8 -9 -9
-1 -1 -1 -2 -2 -2 -2 -1 -1 -1 -4 -1 -1 -3 -3 -2 -3 -2 -3 -5 -6 -6 -6 -6 -6 -6 -6 -6 -6 -6 -6 -5 -5 -4 -4 -4 -4 -4 -4 -5 -5 -5 -6 -6 -7 -7 -7 -8 -8 -8 -9 -9 -9 -10
-2 -2 -2 -3 -3 -6 -3 -1 -1 -1 -1 -3 -4 -5 -5 -3 -3 -3 -7 -6 -8 -7 -7 -7 -7 -6 -6 -6 -6 -6 -6 -6 -6 -6 -5 -5 -5 -5 -5 -5 -5 -5 -6 -6 -6 -7 -7 -7 -7 -8 -8 -8 -9 -9
-2 -3 -3 -6 -4 -4 -10 -10 -8 -5 -8 -7 -7 -9 -8 -3 -10 -10 -8 -8 -9 -9 -8 -8 -8 -8 -8 -8 -8 -8 -8 -7 -7 -7 -7 -6 -6 -5 -5 -5 -6 -6 -6 -7 -7 -7 -7 -7 -7 -7 -8 -8 -9 -9
-8 -4 -6 -4 -5 -6 -7 -8 -10 -9 -10 -8 -9 -4 -3 -10 -10 -9 -9 -10 -10 -9 -10 -10 -10 -10 -10 -10 -10 -9 -9 -9 -9 -8 -8 -7 -7 -7 -7 -7 -7 -7 -7 -7 -7 -8 -8 -8 -8 -8 -8 -8 -9 -9
-9 -8 -3 -3 -3 -2 -4 -3 -3 -7 -9 -9 -10 -8 -8 -6 -11 -11 -11 -11 -11 -11 -11 -11 -11 -11 -11 -11 -10 -10 -10 -10 -10 -9 -9 -9 -8 -8 -8 -8 -8 -8 -8 -8 -8 -8 -9 -9 -9 -8 -8 -9 -9 -9
-4 -3 -8 -4 -3 -3 -9 -10 -10 -9 -11 -4 -4 -9 -9 -11 -12 -13 -13 -12 -12 -12 -11 -11 -11 -11 -11 -10 -10 -10 -10 -9 -9 -9 -10 -10 -9 -9 -9 -9 -10 -10 -10 -9 -9 -9 -9 -10 -10 -9 -9 -9 -9 -10
-4 -4 -4 -5 -4 -4 -5 -7 -7 -6 -6 -6 -6 -10 -12 -14 -14 -14 -14 -13 -13 -12 -12 -12 -12 -12 -11 -11 -11 -10 -10 -10 -9 -10 -10 -10 -10 -10 -10 -11 -10 -10 -10 -10 -10 -10 -10 -10 -10 -10 -10 -10 -10 -10
-5 -5 -5 -6 -11 -10 -6 -5 -5 -7 -7 -7 -8 -12 -14 -16 -15 -15 -14 -14 -14 -13 -14 -13 -13 -13 -12 -12 -12 -12 -11 -11 -11 -11 -11 -11 -11 -11 -11 -11 -10 -10 -10 -10 -10 -10 -10 -10 -11 -11 -11 -10 -10 -11
-5 -6 -5 -5 -7 -6 -6 -7 -8 -8 -8 -9 -10 -11 -15 -16 -17 -16 -16 -16 -15 -15 -15 -14 -14 -14 -14 -14 -13 -13 -13 -13 -13 -13 -12 -12 -12 -12 -12 -11 -11 -11 -11 -11 -11 -11 -11 -11 -11 -11 -11 -11 -11 -12
-6 -6 -6 -7 -8 -7 -8 -8 -8 -8 -9 -10 -12 -13 -15 -15 -17 -17 -17 -17 -17 -16 -16 -16 -16 -16 -16 -16 -16 -15 -15 -14 -14 -13 -13 -13 -13 -13 -13 -13 -13 -13 -13 -13 -13 -12 -12 -12 -12 -12 -12 -12 -13 -13
-6 -6 -7 -7 -8 -8 -8 -8 -7 -8 -10 -11 -12 -13 -15 -16 -18 -18 -19 -18 -18 -17 -17 -17 -17 -17 -16 -16 -16 -16 -16 -15 -15 -14 -14 -14 -14 -14 -14 -14 -14 -14 -14 -14 -14 -14 -14 -14 -14 -14 -14 -14 -15 -15

GFSWCAN_850_temp_147.txt.gz
Temp
-1 -1 -0 -0 -0 0 0 -0 -1 -0 -1 -1 -1 -1 -1 -1 -1 -0 0 1 1 2 2 3 4 5 5 5 2 4 4 3 2 2 3 4 4 5 5 6 6 5 5 3 4 4 5 5 5 5 1 1 2 1
-1 -1 -1 -0 0 0 -0 -1 -1 -1 -1 -1 -1 -1 -1 -1 -1 -1 0 1 1 1 2 3 4 4 5 6 6 5 4 4 3 3 2 4 5 3 5 5 6 4 5 3 4 3 1 2 4 4 4 2 1 1
-1 -1 -1 -1 -0 -0 -0 -1 -1 -1 -1 -1 -1 -1 -1 -1 -1 -1 0 0 1 1 2 2 2 3 3 4 5 4 4 5 5 6 4 3 4 1 4 4 4 4 4 1 2 1 -0 1 2 3 3 2 1 1
-1 -1 -1 -0 -0 -1 -1 -1 -1 -1 -1 -1 -1 -1 -1 -1 -0 -0 -0 1 1 1 0 1 2 2 3 3 3 4 4 3 4 5 4 3 3 4 4 4 4 4 3 0 -0 -1 -0 0 2 2 1 1 0 -1
-2 -2 -1 -0 -1 -1 -1 -1 -1 -1 -1 -1 -1 -1 -1 -1 -0 -0 0 1 1 1 1 1 2 2 3 4 5 6 5 5 6 5 1 3 3 3 3 3 2 3 0 0 -1 0 1 0 1 1 1 -0 -0 -1
-2 -2 -1 -1 -1 -1 -1 -1 -1 -1 -1 -1 -1 -1 -1 -1 -0 -0 0 0 1 2 2 1 0 1 4 6 6 6 6 6 6 5 2 3 4 3 2 1 3 3 4 5 3 2 2 1 0 0 0 -0 -1 -1
-2 -2 -2 -1 -1 -1 -1 -1 -1 -1 -1 -1 -1 -1 -1 -0 -0 -0 1 1 1 3 3 -0 0 1 4 5 5 5 6 6 6 4 3 3 3 4 1 2 2 2 3 5 3 2 -1 -0 -1 -0 -0 -1 -1 -2
-2 -2 -2 -2 -1 -1 -1 -1 -1 -1 -1 -1 -1 -1 -0 -0 -0 0 2 3 3 3 3 -0 0 3 4 4 3 4 4 5 4 3 3 2 3 2 0 1 1 2 2 2 2 3 2 -0 -1 -1 -1 -2 -2 -3
-2 -2 -1 -1 -1 -1 -1 -1 -1 -1 -2 -1 -1 -1 0 0 0 1 3 4 4 4 1 -0 -0 -0 3 2 3 4 4 -1 2 -0 1 2 -1 1 1 0 0 1 2 1 1 2 0 -0 -1 -2 -2 -2 -2 -3
-2 -2 -1 -1 -1 -1 -1 -2 -2 -2 -2 -1 -0 0 -2 -0 -0 2 4 5 4 4 3 -1 1 0 2 1 -0 1 1 -3 -1 -0 2 -2 -1 3 4 3 3 2 3 2 0 -2 -1 -1 -2 -2 -2 -2 -2 -3
-2 -1 -1 -2 -1 -1 -1 -2 -2 -2 -1 -1 1 -0 -1 1 3 3 3 1 2 -0 2 1 2 -0 2 -1 -3 -0 -4 -3 -1 -0 -1 -2 -0 0 3 2 2 2 2 2 3 2 1 1 -1 -2 -2 -3 -3 -3
-1 -2 -2 -2 -1 -1 -2 -2 -1 -1 -0 -0 0 -0 0 2 2 -1 -4 -1 -0 0 1 0 1 2 2 3 -0 -1 -2 -3 0 -2 -4 -2 -1 2 2 2 2 2 1 1 1 1 -0 -0 -0 -1 -2 -3 -3 -3
-2 -2 -2 -2 -2 -2 -2 -2 -1 -1 0 1 2 2 2 -0 -3 -3 -3 -2 -2 -1 1 2 -1 2 2 2 -3 -4 -3 -3 -1 -6 -3 -2 1 1 2 2 1 1 1 0 0 -0 -0 -1 -1 -1 -2 -3 -3 -3
-2 -3 -2 -2 -2 -2 -2 -1 -0 0 1 1 0 -4 -5 -4 -2 -1 -1 -2 -1 0 2 2 0 0 0 -2 -4 -3 -1 -2 -5 -5 -2 -3 1 1 2 2 2 1 0 0 0 -0 -0 -1 -1 -2 -3 -3 -3 -3
-2 -2 -3 -3 -2 -2 -2 -1 0 1 0 -1 -1 -4 -5 -3 -2 -2 -1 -1 -0 1 3 1 -0 1 -3 -3 -3 -2 -1 -3 -2 -3 -4 -0 0 2 2 2 2 1 1 0 0 -0 -1 -1 -1 -2 -3 -3 -3 -4
-2 -2 -2 -2 -2 -1 -1 -0 0 0 -1 -1 -3 -4 -3 -2 -3 -2 -2 -1 1 2 3 3 -2 -3 -3 -3 -1 -2 -0 -2 -3 -1 -1 -0 1 2 2 2 2 2 1 1 0 -0 -1 -1 -1 -2 -2 -3 -4 -4
-2 -3 -3 -2 -1 -0 0 1 1 -1 -2 -2 -3 -3 -3 -3 -3 -3 -2 -0 1 2 -4 -2 -2 -0 -2 -2 -1 -2 -2 -1 -2 -2 -1 -0 -0 1 1 1 1 1 0 -0 -0 -1 -1 -2 -2 -3 -3 -3 -4 -4
-2 -3 -2 -1 -0 0 1 0 -1 -2 -3 -3 -3 -3 -3 -3 -3 -2 -1 -0 1 1 0 -2 -0 -1 -4 -1 -2 -1 -3 -3 -3 -3 -3 -1 -0 0 0 0 -0 -0 -1 -1 -1 -2 -2 -3 -3 -3 -4 -4 -5 -5
-2 -2 -1 -0 1 1 -0 -1 -1 -3 -3 -3 -3 -3 -2 -3 -2 -2 -1 -1 0 0 1 0 -3 -3 -4 -4 -3 -3 -3 -2 -3 -4 -4 -4 -3 -2 -1 -1 -1 -2 -2 -2 -2 -3 -3 -3 -4 -4 -5 -5 -5 -6
-1 -1 -0 0 0 -0 -1 -1 -1 -2 -2 -2 -2 -2 -3 -3 -3 -2 -1 -0 -0 -1 -2 -3 -5 -5 -4 -5 -4 -4 -3 -3 -3 -3 -4 -4 -4 -3 -3 -3 -3 -3 -3 -3 -4 -4 -4 -5 -5 -5 -5 -6 -6 -6
-1 -1 -1 -0 -1 -1 -1 -1 -1 -1 -2 -2 -2 -2 -2 -1 -2 -1 -1 -1 -2 -4 -4 -5 -5 -5 -5 -5 -5 -4 -3 -3 -3 -3 -4 -3 -4 -4 -4 -4 -4 -4 -4 -5 -5 -5 -6 -5 -6 -6 -6 -6 -6 -7
-1 -0 0 -0 -1 -1 -1 -2 -1 -1 -1 -2 -2 -2 -2 -2 -2 -3 -2 -4 -5 -6 -6 -6 -6 -6 -6 -6 -6 -5 -5 -5 -5 -4 -4 -4 -4 -4 -4 -5 -5 -6 -5 -6 -6 -6 -6 -6 -7 -7 -7 -7 -8 -8
-1 -0 -0 -1 -1 -1 -2 -1 -1 -1 -5 -2 -2 -3 -4 -3 -3 -3 -5 -6 -7 -7 -6 -6 -6 -6 -6 -6 -6 -6 -7 -6 -5 -5 -5 -4 -4 -4 -4 -4 -4 -5 -5 -5 -6 -6 -7 -7 -7 -8 -8 -8 -8 -9
-1 -1 -2 -3 -3 -6 -2 -2 -2 -2 -2 -4 -5 -6 -6 -4 -3 -4 -6 -8 -9 -7 -7 -7 -7 -7 -7 -7 -7 -7 -7 -7 -7 -7 -6 -6 -5 -5 -5 -5 -5 -5 -6 -6 -6 -7 -7 -7 -7 -7 -8 -8 -8 -9
-2 -3 -3 -7 -4 -5 -11 -11 -9 -6 -9 -9 -8 -9 -9 -4 -11 -12 -9 -10 -10 -9 -9 -9 -8 -8 -8 -9 -9 -9 -9 -8 -8 -8 -7 -7 -7 -6 -6 -6 -5 -6 -6 -7 -7 -7 -7 -8 -8 -8 -7 -8 -8 -8
-8 -4 -6 -5 -6 -7 -8 -8 -11 -10 -11 -9 -10 -5 -4 -12 -11 -11 -10 -11 -11 -11 -11 -10 -10 -10 -10 -10 -10 -9 -9 -9 -10 -10 -9 -9 -8 -8 -7 -7 -7 -7 -7 -7 -7 -8 -8 -8 -8 -8 -8 -8 -8 -9
-9 -8 -4 -4 -4 -4 -5 -5 -5 -9 -10 -10 -11 -11 -12 -10 -13 -12 -12 -12 -12 -11 -11 -11 -11 -11 -11 -10 -10 -10 -10 -10 -10 -10 -10 -9 -9 -9 -9 -9 -9 -9 -9 -9 -9 -9 -9 -9 -9 -9 -9 -8 -9 -9
-4 -4 -9 -4 -4 -4 -11 -12 -11 -9 -11 -6 -6 -11 -10 -12 -13 -13 -13 -13 -13 -12 -12 -12 -11 -11 -11 -11 -10 -10 -10 -10 -10 -10 -10 -10 -10 -10 -10 -10 -10 -10 -10 -10 -10 -10 -9 -9 -10 -10 -10 -9 -9 -10
-4 -4 -4 -5 -5 -5 -6 -8 -8 -7 -7 -6 -10 -13 -14 -14 -15 -14 -14 -13 -13 -13 -12 -12 -12 -12 -12 -11 -11 -11 -10 -10 -11 -10 -10 -10 -11 -10 -10 -10 -10 -10 -10 -10 -10 -10 -10 -10 -10 -10 -10 -10 -10 -10
-5 -5 -5 -7 -11 -11 -6 -6 -5 -7 -7 -8 -9 -12 -15 -17 -16 -15 -15 -14 -14 -14 -14 -13 -13 -13 -13 -13 -12 -12 -12 -11 -11 -11 -11 -11 -12 -12 -11 -11 -11 -11 -11 -11 -11 -11 -11 -11 -11 -11 -11 -11 -10 -10
-6 -6 -6 -6 -7 -6 -7 -7 -7 -8 -9 -10 -11 -11 -16 -17 -17 -16 -16 -16 -16 -16 -15 -15 -15 -14 -14 -14 -14 -14 -14 -13 -13 -13 -13 -13 -13 -13 -13 -13 -12 -12 -12 -12 -12 -11 -11 -11 -11 -11 -11 -11 -12 -12
-6 -6 -6 -9 -8 -7 -7 -7 -8 -8 -9 -11 -13 -14 -16 -16 -17 -18 -18 -17 -17 -16 -16 -16 -16 -16 -16 -16 -16 -15 -15 -15 -15 -14 -14 -14 -14 -14 -14 -14 -14 -13 -13 -13 -13 -13 -13 -12 -12 -12 -12 -13 -13 -14
-7 -7 -6 -7 -8 -8 -8 -8 -8 -11 -11 -12 -14 -14 -16 -16 -19 -19 -19 -18 -18 -17 -17 -17 -17 -17 -17 -17 -17 -16 -16 -16 -15 -15 -15 -15 -15 -15 -15 -15 -15 -15 -15 -15 -14 -14 -14 -14 -14 -14 -15 -15 -15 -15

GFSWCAN_850_temp_150.txt.gz
Temp
-1 -0 -1 -0 -0 -0 0 0 -0 -0 -0 -0 -0 -1 -1 -1 -1 -1 -1 -1 -0 0 1 2 3 3 3 3 2 4 4 3 1 3 3 3 3 4 4 5 4 4 4 4 5 5 5 5 5 5 2 0 1 0
-1 -0 -0 -0 0 -0 -0 -0 -0 -0 -0 -0 -1 -1 -1 -1 -1 -1 -1 -0 -1 -0 1 1 2 2 3 3 3 4 4 3 3 2 2 3 3 3 4 4 6 4 5 4 5 4 1 2 4 4 4 2 1 1
-1 -1 -0 -0 -0 -0 -0 -0 -0 -0 -0 -0 -1 -1 -1 -1 -1 -1 -1 -0 -0 0 0 1 2 2 3 3 2 2 4 5 4 4 3 3 4 1 4 4 4 4 4 2 3 1 1 1 2 4 4 3 2 2
-1 -1 -1 -0 -0 -0 -0 -1 -1 -1 -1 -1 -1 -1 -1 -1 -1 -1 -1 -1 -0 -0 0 1 2 3 2 3 3 3 3 3 4 4 3 3 3 3 3 4 3 4 3 0 -0 -1 -0 0 2 3 2 2 2 1
-1 -1 -1 -0 -0 -0 -1 -1 -1 -1 -1 -1 -1 -1 -1 -1 -1 -1 -1 -0 -0 1 0 1 1 2 2 3 2 2 2 2 1 1 1 2 2 2 1 2 1 3 1 1 1 2 2 2 2 2 2 1 1 -0
-1 -1 -1 -1 -1 -1 -1 -1 -1 -2 -1 -1 -1 -1 -1 -1 -1 -1 -1 0 0 0 0 1 0 1 2 2 2 3 3 2 2 4 2 2 3 3 0 1 3 4 4 4 4 2 2 2 1 1 2 1 -0 -0
-1 -1 -1 -1 -1 -1 -1 -1 -1 -1 -1 -1 -2 -1 -1 -1 -1 -1 -0 0 0 0 0 -0 0 1 1 2 2 2 3 4 5 4 2 2 2 2 1 2 3 3 3 4 3 3 -1 0 -0 1 1 -0 -1 -1
-1 -1 -1 -1 -1 -1 -1 -1 -1 -1 -1 -1 -2 -1 -1 -1 -1 -1 -1 -0 0 0 2 0 0 1 3 3 3 4 4 4 3 2 2 1 1 1 1 2 1 1 2 2 1 3 3 1 0 -0 -0 -1 -1 -2
-2 -1 -1 -1 -1 -1 -1 -1 -1 -1 -2 -2 -1 -1 -1 -1 -0 -0 0 0 0 1 1 -0 0 1 2 2 2 3 3 -1 2 0 1 1 -1 1 2 2 1 1 2 1 1 2 1 1 -0 -1 -1 -1 -1 -2
-2 -1 -1 -1 -1 -2 -1 -2 -2 -2 -2 -2 -2 -2 -1 -0 0 -0 1 2 1 2 2 -1 0 0 2 0 -0 1 1 -2 -0 -1 0 -2 -1 3 4 4 4 2 3 2 1 -2 -1 -1 -1 -1 -1 -1 -1 -2
-2 -1 -2 -2 -1 -1 -1 -2 -2 -2 -2 -2 -1 -1 -1 -1 0 2 2 2 1 -0 1 1 1 0 2 -0 -2 -1 -3 -2 -1 -0 -1 -2 -1 -0 3 4 3 2 3 2 3 3 1 2 -0 -1 -2 -2 -2 -2
-2 -2 -2 -1 -1 -2 -2 -2 -2 -2 -2 -1 -1 -1 -0 1 1 -1 -3 -1 -0 1 -0 -0 1 2 1 3 -0 -1 -2 -3 -1 -3 -3 -2 -2 1 2 1 2 2 2 1 1 2 1 1 0 -0 -1 -2 -2 -3
-2 -2 -2 -2 -2 -2 -2 -2 -2 -1 -2 -1 -0 -1 0 -1 -2 -2 -2 -1 0 -1 0 1 -2 2 1 2 -3 -4 -4 -3 -2 -6 -3 -3 -0 0 1 1 1 1 1 0 0 -0 0 0 -0 -1 -1 -2 -3 -3
-2 -2 -2 -2 -2 -2 -2 -2 -2 -1 -1 0 -0 -3 -3 -4 -3 -3 -1 -1 -1 -1 1 2 -0 -0 -0 -2 -5 -3 -1 -2 -5 -5 -2 -5 -2 -1 0 1 1 1 0 0 0 -0 -1 -1 -1 -1 -2 -2 -3 -3
-2 -2 -2 -2 -2 -2 -2 -1 -2 0 0 -1 -1 -4 -5 -3 -3 -2 -2 -1 -1 -0 2 1 -1 0 -3 -3 -3 -1 -0 -3 -3 -3 -2 -2 -2 -1 0 1 1 1 0 0 0 -0 -1 -1 -1 -2 -2 -3 -3 -4
-3 -3 -3 -3 -2 -1 -0 -1 0 0 -1 -2 -2 -4 -3 -3 -3 -2 -2 -1 0 1 2 2 -3 -3 -3 -3 -2 -3 -1 -3 -4 -2 -3 -2 -1 -1 0 1 1 1 1 0 -0 -0 -1 -1 -1 -2 -2 -3 -3 -4
-2 -3 -3 -2 -2 -1 0 0 -0 -1 -2 -3 -3 -3 -3 -3 -3 -2 -2 -0 1 2 -4 -2 -2 -1 -3 -3 -2 -1 -3 -2 -3 -3 -3 -2 -1 -1 0 1 1 1 1 0 -0 -1 -1 -1 -2 -2 -2 -3 -3 -4
-2 -2 -2 -1 -0 0 1 0 -1 -2 -3 -3 -3 -3 -4 -3 -3 -2 -1 0 2 1 0 -1 -1 -1 -4 -2 -1 -2 -3 -3 -4 -4 -4 -3 -2 -1 -0 0 1 0 0 -0 -1 -1 -1 -2 -2 -2 -3 -3 -3 -4
-2 -1 -1 -0 1 1 -0 -1 -1 -3 -3 -3 -3 -3 -3 -3 -3 -2 -1 -0 0 0 0 -1 -5 -5 -6 -5 -4 -4 -4 -4 -4 -4 -5 -5 -3 -2 -1 -1 -1 -1 -1 -2 -2 -2 -3 -3 -3 -3 -4 -4 -4 -5
-1 -0 0 0 1 0 -1 -2 -2 -2 -3 -3 -2 -3 -3 -3 -2 -2 -1 -1 -1 -2 -3 -5 -6 -6 -5 -6 -5 -5 -5 -4 -3 -3 -4 -5 -5 -4 -3 -3 -3 -3 -3 -3 -3 -3 -4 -4 -4 -4 -4 -5 -5 -5
-0 -0 -0 0 -0 -1 -2 -2 -2 -2 -2 -2 -2 -2 -2 -2 -2 -2 -2 -2 -3 -5 -5 -6 -6 -6 -6 -6 -6 -5 -5 -4 -4 -4 -4 -4 -5 -5 -4 -3 -3 -4 -4 -4 -4 -4 -5 -5 -5 -5 -5 -5 -6 -6
-1 -0 -0 -0 -1 -1 -2 -2 -2 -2 -2 -2 -2 -2 -2 -3 -3 -4 -4 -5 -6 -7 -7 -6 -6 -6 -6 -6 -6 -6 -6 -5 -5 -5 -5 -5 -4 -4 -4 -4 -4 -4 -4 -5 -5 -5 -5 -6 -6 -6 -6 -6 -7 -7
-0 -0 -0 -1 -1 -1 -3 -2 -1 -2 -5 -3 -2 -4 -5 -4 -4 -4 -6 -7 -8 -8 -7 -7 -7 -6 -6 -7 -7 -7 -7 -6 -6 -6 -5 -5 -5 -4 -4 -5 -5 -5 -5 -6 -6 -6 -6 -7 -7 -7 -7 -8 -8 -8
-1 -1 -2 -3 -3 -6 -3 -3 -2 -2 -2 -5 -6 -6 -6 -4 -4 -6 -7 -9 -10 -9 -8 -7 -7 -7 -7 -7 -7 -8 -8 -7 -7 -7 -7 -7 -6 -6 -5 -5 -5 -6 -6 -6 -6 -7 -7 -7 -7 -7 -8 -8 -8 -8
-1 -4 -3 -8 -4 -5 -11 -12 -10 -7 -9 -9 -8 -9 -10 -4 -11 -11 -9 -11 -10 -10 -9 -9 -9 -9 -9 -9 -9 -9 -9 -9 -9 -9 -9 -8 -8 -7 -7 -6 -6 -6 -6 -7 -7 -7 -7 -7 -8 -8 -8 -8 -8 -8
-7 -5 -7 -6 -7 -7 -8 -8 -11 -11 -12 -10 -10 -6 -5 -13 -11 -12 -11 -12 -11 -11 -11 -10 -10 -10 -10 -10 -10 -10 -10 -10 -10 -10 -10 -9 -9 -8 -8 -8 -8 -8 -8 -8 -8 -8 -8 -8 -8 -8 -8 -8 -8 -8
-10 -9 -5 -5 -5 -4 -7 -6 -6 -9 -10 -11 -11 -12 -13 -11 -13 -13 -13 -12 -12 -12 -11 -11 -11 -11 -11 -10 -10 -10 -10 -10 -10 -10 -10 -10 -10 -10 -9 -9 -9 -10 -9 -9 -9 -9 -9 -9 -9 -9 -9 -9 -9 -9
-5 -5 -9 -5 -4 -5 -12 -14 -12 -10 -12 -7 -7 -12 -12 -13 -14 -14 -14 -13 -13 -13 -12 -12 -12 -11 -11 -11 -11 -10 -10 -9 -10 -10 -11 -10 -10 -10 -10 -10 -10 -10 -10 -10 -10 -10 -10 -10 -10 -10 -10 -10 -9 -10
-5 -5 -5 -6 -5 -6 -7 -10 -8 -8 -7 -7 -12 -16 -15 -15 -15 -15 -14 -14 -14 -13 -13 -13 -12 -12 -12 -12 -12 -12 -11 -11 -11 -11 -11 -11 -11 -11 -11 -11 -11 -11 -11 -11 -11 -10 -10 -11 -10 -10 -10 -10 -10 -10
-6 -6 -6 -8 -12 -11 -6 -6 -6 -7 -7 -8 -10 -13 -15 -17 -16 -16 -15 -15 -14 -14 -14 -14 -14 -14 -13 -13 -13 -13 -12 -12 -12 -12 -12 -12 -12 -12 -12 -12 -12 -12 -11 -11 -11 -11 -11 -11 -11 -11 -11 -11 -11 -11
-6 -6 -7 -7 -8 -6 -6 -7 -7 -8 -9 -11 -12 -12 -16 -17 -17 -17 -16 -16 -16 -16 -15 -15 -15 -15 -15 -15 -14 -14 -14 -14 -14 -14 -14 -14 -14 -14 -13 -13 -13 -13 -12 -12 -12 -12 -12 -12 -12 -12 -12 -12 -12 -12
-7 -7 -7 -9 -7 -7 -7 -7 -8 -8 -11 -12 -14 -15 -17 -17 -17 -18 -18 -17 -17 -17 -16 -16 -16 -16 -16 -16 -16 -16 -16 -16 -15 -15 -15 -15 -14 -14 -14 -14 -14 -14 -14 -14 -13 -13 -13 -13 -13 -13 -13 -13 -14 -14
-8 -8 -7 -8 -8 -8 -8 -8 -9 -12 -12 -14 -15 -15 -16 -17 -19 -19 -19 -18 -18 -17 -17 -17 -17 -17 -17 -17 -17 -17 -17 -16 -16 -16 -16 -16 -16 -15 -15 -15 -15 -15 -15 -15 -15 -15 -15 -14 -14 -15 -15 -15 -15 -16

GFSWCAN_850_temp_153.txt.gz
Temp
-2 -1 0 -0 -0 -0 -0 -0 -0 -0 0 -0 0 0 0 0 -0 -1 -1 -1 -1 -1 -1 0 2 2 2 2 2 3 3 2 2 3 4 4 5 5 5 6 5 5 5 4 4 4 5 5 5 6 5 0 1 -0
-2 -1 -1 -0 -0 -0 -0 -0 -0 -0 -0 0 0 -0 -0 -0 -0 -1 -1 -1 -1 -1 -0 1 1 2 2 2 2 1 3 2 3 4 3 4 4 4 5 5 5 5 6 6 6 6 3 3 3 5 4 2 -1 -0
-1 -1 -1 -1 -0 -0 -0 -0 0 -0 -0 -0 -0 -0 -0 -0 -1 -1 -1 -1 -1 -1 -1 -0 1 2 2 2 2 2 1 4 4 4 3 4 4 4 5 5 5 5 4 5 5 3 2 1 3 4 3 3 2 2
-0 -1 -0 -1 -1 -0 -0 -0 0 -0 -0 -1 -0 -0 -1 -1 -1 -2 -2 -1 -1 -1 -0 1 1 1 1 3 2 2 2 2 3 4 2 3 4 4 5 5 5 5 4 3 4 1 0 1 3 4 3 3 2 2
-1 -1 -1 -1 -0 -1 -0 -0 -0 -1 -1 -0 -0 -1 -1 -1 -1 -1 -1 -1 -1 -1 0 0 1 1 2 2 3 2 2 2 2 1 1 3 2 3 2 3 4 4 4 4 5 4 5 4 4 4 3 3 3 2
-1 -1 -0 -0 -0 -0 -0 -0 -1 -1 -1 -1 -1 -1 -1 -1 -1 -1 -1 -0 -1 -1 -0 1 1 1 1 2 2 2 2 1 0 0 1 1 2 3 4 4 5 4 4 5 4 3 3 3 2 2 3 2 2 2
-1 -1 -0 -0 -0 -0 -0 -1 -1 -1 -1 -1 -1 -1 -1 -1 -1 -1 -1 -0 -0 -1 -0 0 1 0 1 2 1 1 1 1 1 2 2 2 2 2 2 4 4 3 3 3 3 3 -0 0 0 1 2 1 1 0
-1 -0 -0 -1 -1 -1 -1 -1 -1 -1 -2 -1 -1 -1 -1 -1 -1 -1 -1 -1 -1 -0 -0 0 1 0 -0 0 0 1 2 2 2 2 2 2 1 1 3 4 2 2 2 2 1 3 3 2 1 0 1 0 -0 -1
-1 -1 -1 -1 -1 -1 -1 -1 -2 -1 -2 -2 -2 -2 -1 -1 -2 -1 -1 -1 -0 -0 -0 -0 2 2 0 0 2 2 3 2 1 2 2 1 1 2 3 4 2 1 2 1 1 2 1 1 1 0 -0 -1 -1 -1
-1 -1 -1 -1 -1 -1 -2 -2 -2 -2 -2 -2 -2 -2 -1 -1 -1 -1 -1 -1 -1 -0 -0 0 -0 1 1 -0 0 1 1 1 2 1 -0 1 3 3 4 4 4 4 3 2 1 -2 -1 -1 -0 -0 -0 -0 -0 -1
-1 -1 -1 -1 -2 -2 -2 -2 -2 -2 -2 -2 -3 -2 -2 -1 -1 -1 -1 -1 -1 0 0 -0 -0 1 1 1 0 -1 -0 -0 2 1 2 1 2 1 1 2 2 2 2 2 3 3 2 2 1 -0 -1 -1 -1 -1
-2 -2 -2 -2 -2 -2 -2 -2 -2 -2 -2 -2 -2 -2 -2 -1 -1 -0 -1 -0 1 1 -1 0 1 1 1 2 1 -0 0 -0 1 -2 1 1 1 -0 -0 -0 1 1 1 1 1 2 2 1 1 0 -1 -1 -1 -2
-2 -2 -2 -2 -2 -2 -2 -2 -2 -2 -2 -2 -2 -2 -2 -2 -2 -1 -1 -0 1 -1 -1 -0 -0 1 1 2 -2 -1 -0 0 -2 -1 0 -0 -1 -1 -1 -1 0 0 0 0 1 1 1 1 0 -0 -0 -1 -1 -2
-2 -2 -2 -2 -2 -2 -2 -2 -2 -2 -2 -1 -2 -3 -3 -3 -2 -2 -1 -1 -2 -2 0 1 -1 -0 -1 -1 -4 -0 -1 -1 -1 -0 0 -0 -2 -2 -2 -1 0 0 0 0 0 0 0 0 -0 -1 -1 -1 -2 -2
-2 -2 -2 -2 -2 -2 -2 -2 -2 -1 -1 -1 -2 -3 -3 -3 -3 -2 -2 -2 -1 -0 1 0 -0 -0 -2 -2 -2 -1 -0 -1 -1 -0 -1 -3 -3 -2 -1 -1 0 0 -0 -0 -0 -0 -1 -1 -1 -1 -2 -2 -3 -3
-2 -2 -3 -3 -2 -2 -2 -1 -1 -1 -1 -2 -3 -3 -3 -3 -2 -2 -2 -1 -0 0 1 2 -1 -1 -2 -1 -0 -1 0 -1 -1 -2 -4 -3 -3 -2 -1 -0 -0 -0 -0 -0 -1 -1 -1 -1 -1 -2 -2 -3 -3 -3
-2 -3 -2 -2 -1 -1 -1 -0 -1 -2 -2 -3 -3 -4 -3 -3 -3 -2 -2 -1 1 1 -1 -1 -1 -1 -1 -1 -0 -0 -1 -2 -3 -4 -4 -3 -3 -2 -1 -0 0 -0 -0 -0 -1 -1 -1 -1 -2 -2 -2 -2 -3 -3
-2 -2 -1 -1 -0 -0 -0 -1 -1 -2 -4 -3 -3 -3 -3 -3 -3 -2 -2 -0 1 1 -0 -1 -1 -1 -2 -1 -1 -2 -4 -4 -4 -5 -5 -4 -3 -2 -1 -0 -0 -0 -0 -1 -1 -1 -1 -2 -2 -2 -2 -3 -3 -3
-1 -1 -1 -0 1 1 -0 -1 -1 -4 -4 -3 -3 -3 -2 -3 -3 -2 -1 -1 0 -0 -0 -2 -4 -4 -4 -5 -5 -5 -5 -4 -4 -5 -5 -5 -4 -3 -2 -1 -0 -1 -1 -1 -1 -2 -2 -2 -3 -3 -3 -3 -3 -4
-0 -0 0 0 1 0 -1 -2 -2 -2 -3 -3 -3 -3 -3 -3 -3 -2 -1 -1 -1 -2 -5 -5 -6 -6 -6 -6 -6 -6 -5 -4 -4 -4 -5 -5 -5 -5 -3 -3 -3 -2 -2 -2 -2 -3 -3 -3 -3 -4 -4 -4 -4 -5
-0 -0 0 0 0 -1 -2 -2 -2 -2 -2 -3 -3 -3 -3 -3 -3 -3 -3 -3 -4 -6 -6 -7 -7 -7 -6 -6 -6 -6 -5 -5 -4 -5 -5 -5 -5 -5 -5 -4 -4 -4 -4 -4 -4 -4 -4 -5 -5 -5 -5 -5 -5 -5
-0 0 0 -0 -1 -2 -2 -3 -2 -2 -2 -3 -2 -3 -3 -4 -4 -5 -5 -6 -7 -8 -7 -7 -7 -7 -7 -6 -7 -6 -6 -6 -5 -5 -5 -5 -5 -5 -5 -5 -5 -5 -5 -5 -5 -6 -6 -6 -6 -6 -6 -6 -6 -7
-0 -0 -1 -1 -1 -2 -3 -3 -2 -2 -5 -4 -3 -4 -5 -5 -4 -5 -7 -8 -9 -8 -8 -7 -7 -7 -7 -8 -8 -7 -7 -7 -6 -6 -6 -6 -6 -6 -5 -6 -6 -6 -6 -6 -6 -6 -7 -7 -7 -7 -7 -8 -8 -8
-0 -1 -2 -2 -3 -6 -3 -3 -3 -3 -3 -5 -6 -6 -6 -5 -5 -7 -8 -10 -11 -9 -8 -8 -8 -8 -8 -8 -8 -8 -8 -8 -8 -8 -8 -7 -7 -6 -6 -6 -6 -6 -6 -6 -7 -7 -7 -7 -7 -7 -7 -8 -8 -8
-1 -4 -3 -9 -5 -6 -11 -11 -10 -7 -9 -10 -9 -8 -8 -6 -9 -10 -9 -11 -11 -10 -9 -9 -9 -9 -9 -10 -10 -10 -10 -9 -9 -9 -9 -9 -9 -8 -8 -8 -8 -8 -7 -7 -7 -7 -7 -8 -8 -8 -8 -8 -8 -8
-9 -5 -7 -7 -7 -8 -8 -9 -11 -10 -11 -11 -8 -8 -7 -10 -10 -10 -11 -12 -12 -11 -10 -10 -10 -10 -10 -10 -10 -9 -9 -10 -10 -10 -10 -10 -9 -9 -9 -9 -9 -9 -9 -9 -8 -8 -8 -9 -9 -9 -9 -9 -9 -9
-10 -9 -5 -5 -5 -5 -8 -7 -7 -10 -11 -10 -9 -12 -11 -11 -12 -13 -13 -13 -12 -12 -11 -11 -11 -11 -11 -11 -10 -10 -10 -9 -10 -10 -11 -11 -10 -10 -10 -10 -10 -10 -10 -10 -10 -10 -9 -9 -9 -9 -10 -10 -9 -9
-6 -6 -10 -6 -5 -6 -13 -14 -12 -11 -11 -7 -8 -10 -10 -12 -12 -14 -14 -14 -13 -13 -13 -12 -12 -12 -12 -11 -11 -10 -10 -9 -10 -11 -11 -11 -11 -11 -11 -11 -11 -11 -10 -10 -10 -10 -10 -10 -10 -10 -10 -10 -10 -10
-6 -6 -6 -8 -6 -7 -8 -11 -7 -8 -8 -8 -11 -13 -15 -15 -16 -15 -15 -14 -14 -14 -13 -13 -13 -13 -13 -13 -12 -12 -11 -12 -12 -12 -12 -12 -12 -12 -12 -11 -11 -11 -11 -11 -11 -11 -10 -11 -11 -11 -11 -11 -10 -10
-6 -6 -6 -10 -12 -10 -7 -7 -6 -7 -8 -9 -11 -14 -15 -17 -16 -16 -15 -15 -15 -14 -14 -14 -14 -14 -14 -14 -14 -13 -13 -13 -13 -13 -13 -13 -13 -13 -13 -12 -12 -12 -12 -11 -11 -11 -11 -11 -11 -12 -11 -11 -11 -11
-7 -7 -7 -8 -9 -6 -6 -7 -7 -8 -9 -11 -12 -13 -16 -17 -18 -17 -17 -16 -16 -16 -15 -15 -15 -15 -15 -15 -15 -15 -15 -15 -15 -15 -14 -14 -14 -14 -14 -14 -13 -13 -13 -13 -13 -12 -12 -12 -12 -12 -12 -12 -12 -12
-8 -8 -8 -9 -8 -8 -8 -8 -8 -9 -11 -12 -14 -15 -17 -17 -18 -18 -18 -17 -17 -17 -16 -16 -16 -16 -16 -16 -16 -16 -16 -16 -16 -16 -16 -15 -15 -15 -15 -15 -15 -15 -14 -14 -14 -14 -13 -13 -13 -14 -14 -14 -14 -15
-10 -9 -9 -8 -9 -9 -8 -8 -10 -13 -13 -15 -16 -16 -17 -17 -19 -18 -19 -18 -17 -17 -17 -17 -17 -17 -17 -17 -17 -17 -17 -17 -17 -16 -16 -16 -16 -16 -16 -16 -16 -16 -16 -15 -15 -15 -15 -15 -15 -15 -15 -16 -16 -16

GFSWCAN_850_temp_159.txt.gz
Temp
-3 -3 -3 -2 -3 -3 -2 -2 0 1 0 0 -0 0 1 1 1 1 1 1 1 1 3 4 4 5 6 6 6 4 4 2 2 3 6 8 9 10 10 11 9 9 8 7 8 8 8 13 11 10 10 9 8 8
-3 -3 -3 -2 -2 -2 -2 -0 1 1 -0 -0 -0 1 1 1 1 0 0 -0 0 1 3 1 2 3 5 5 4 5 5 3 4 5 8 9 9 9 10 9 12 9 11 10 9 10 10 11 11 9 8 8 7 6
-3 -3 -2 -2 -2 -1 -0 0 1 -0 -0 0 -0 0 1 1 0 -0 -0 -0 0 0 1 1 2 2 2 2 3 3 2 2 4 5 5 7 8 10 8 10 11 11 12 10 10 11 12 11 9 8 7 7 7 6
-3 -3 -2 -2 -2 -1 0 0 0 -0 0 0 0 0 0 0 0 -0 -1 -0 0 -0 1 3 3 2 2 3 2 3 3 3 3 3 3 5 7 9 9 11 10 11 9 9 10 11 11 9 9 8 6 5 6 5
-2 -2 -1 -1 -0 0 1 -0 0 1 0 0 0 0 -0 -0 -0 -0 -0 -0 -1 0 0 1 1 3 2 2 3 3 3 3 2 2 2 3 7 7 8 9 9 10 10 9 8 9 10 10 9 8 6 5 5 4
-2 -2 -1 -0 -0 0 -0 -0 -0 -0 -0 -0 -0 -1 -1 -1 -1 -1 -1 -1 -1 -1 -1 2 3 3 3 3 2 2 3 2 2 1 1 1 2 5 5 8 10 10 10 11 10 8 8 6 7 6 6 5 5 4
-2 -1 -1 -1 -0 -0 -0 -0 -0 -0 -0 -1 -1 -0 -1 -1 -1 -1 -1 -0 -1 -1 -1 1 5 2 1 2 2 2 2 1 1 0 -0 1 2 2 3 5 9 9 10 9 7 6 6 5 5 5 5 4 3 3
-1 -0 -1 -0 -0 -0 -0 -0 -1 -0 -0 -0 -1 -1 -1 -1 -1 -1 -1 -0 -1 -1 -1 2 4 2 0 0 0 1 0 0 0 0 1 3 3 2 4 8 7 7 7 6 6 5 5 5 4 4 3 3 2 2
-1 -0 -0 -0 -0 -0 -0 -1 -1 -1 -1 -1 -1 -1 -1 -2 -1 -1 -1 -1 -1 -1 -1 0 4 5 -0 -0 -0 -0 0 2 1 3 4 5 4 4 6 7 7 6 6 6 5 4 4 3 3 2 2 2 2 1
-0 -0 0 -0 -0 -0 -0 -0 -0 -1 -1 -2 -2 -1 -1 -1 -1 -1 -1 -1 -1 -1 -1 1 4 3 0 -0 1 1 2 3 4 6 4 5 6 7 5 5 5 5 4 4 4 3 4 3 2 2 2 2 2 0
-0 -0 -0 -0 -0 -0 -0 -1 -1 -1 -2 -2 -2 -2 -2 -1 -1 -1 -1 -1 -1 -0 -0 3 4 2 0 2 2 3 3 5 5 6 6 6 6 5 4 4 3 3 4 3 4 3 4 4 3 2 2 1 1 0
-1 -1 -1 -1 -1 -1 -1 -1 -2 -2 -2 -1 -1 -2 -2 -1 -2 -1 1 1 1 4 3 2 0 0 -0 -0 1 2 5 5 5 5 5 5 4 3 2 2 2 1 2 3 2 2 2 2 2 1 1 1 0 -0
-1 -1 -1 -1 -2 -2 -2 -2 -2 -2 -2 -1 -1 -2 -2 -2 -0 0 2 3 3 3 0 -0 1 -0 -1 -0 2 3 3 4 5 4 5 5 3 1 1 0 1 1 1 1 0 1 1 0 1 1 0 0 -1 -1
-2 -2 -2 -2 -2 -2 -2 -2 -2 -2 -1 -2 -2 -1 -0 0 0 3 2 2 0 1 1 0 -0 1 0 1 2 3 4 4 4 3 5 3 0 -1 -1 -1 1 -0 -0 0 1 1 1 0 -0 -1 -1 -1 -0 -0
-2 -2 -2 -2 -2 -2 -2 -3 -2 -2 -2 -2 -2 -0 0 -0 0 -1 -1 -0 -1 1 0 1 2 3 3 1 4 3 2 3 5 4 2 -1 -2 -2 -2 -2 -1 -1 -1 -0 -0 -0 -1 -1 -1 -1 -1 -1 -1 -1
-2 -2 -2 -2 -2 -2 -2 -2 -2 -2 -2 -2 -1 -0 0 -1 -1 -1 -1 -1 0 1 1 3 4 3 2 3 3 3 5 4 2 1 -2 -2 -3 -3 -3 -2 -1 -1 -1 -1 -1 -1 -1 -1 -1 -1 -1 -1 -1 -2
-2 -2 -3 -3 -3 -2 -2 -2 -2 -2 -1 -1 -1 -2 -2 -1 -1 -1 -1 -0 -0 1 3 5 3 3 4 4 3 3 2 1 -2 -2 -3 -4 -4 -4 -3 -2 -2 -1 -1 -1 -1 -1 -1 -1 -2 -2 -2 -2 -2 -2
-2 -2 -2 -2 -2 -2 -2 -2 -1 -1 -1 -1 -1 -2 -2 -3 -2 -2 -1 -1 1 3 3 3 4 3 2 3 1 -1 -2 -3 -3 -4 -4 -5 -4 -4 -3 -3 -2 -2 -2 -1 -1 -1 -1 -2 -2 -2 -2 -2 -2 -3
-1 -1 -1 -1 -1 -1 -1 -1 -1 -0 -1 -1 -2 -2 -2 -2 -3 -2 -2 -1 -1 0 2 2 1 2 -0 -2 -2 -3 -3 -3 -3 -4 -5 -5 -4 -4 -4 -3 -3 -2 -2 -2 -2 -3 -2 -2 -3 -4 -4 -3 -4 -4
-1 -0 0 0 -0 -0 -0 -1 -1 0 0 -1 -1 -2 -2 -2 -3 -2 -2 -2 -2 -1 -1 -1 -2 -3 -3 -5 -5 -5 -4 -4 -3 -3 -4 -4 -5 -5 -4 -4 -4 -4 -4 -4 -3 -3 -4 -4 -4 -4 -4 -4 -5 -5
-0 -0 -0 -0 -0 -1 -1 -1 -0 -1 -1 -1 -1 -1 -2 -1 -1 -2 -2 -2 -2 -2 -2 -4 -5 -7 -6 -6 -6 -5 -6 -5 -5 -4 -5 -4 -4 -5 -5 -5 -5 -5 -5 -5 -5 -5 -5 -5 -6 -5 -5 -5 -5 -5
-0 -0 -1 -1 -1 -1 -1 -2 -0 -1 -0 -0 -1 -0 -1 -1 -2 -2 -2 -3 -4 -6 -6 -5 -6 -6 -7 -7 -7 -6 -6 -6 -6 -6 -6 -6 -6 -6 -5 -5 -5 -5 -5 -6 -6 -6 -6 -7 -6 -6 -6 -6 -6 -6
-0 -0 -1 -1 -1 -2 -2 -2 -0 0 -0 -0 -0 0 -0 -1 -2 -3 -3 -4 -7 -8 -7 -7 -7 -7 -7 -7 -7 -7 -7 -7 -6 -7 -8 -7 -7 -7 -7 -7 -7 -6 -6 -7 -6 -6 -6 -7 -7 -7 -7 -7 -7 -7
-1 -1 -2 -3 -2 -2 -3 -2 -0 -0 -0 0 1 -1 -1 -1 -3 -2 -2 -4 -7 -8 -8 -8 -7 -7 -7 -7 -7 -8 -9 -8 -7 -8 -9 -8 -8 -8 -8 -8 -9 -8 -8 -8 -8 -7 -7 -8 -8 -8 -8 -8 -8 -8
-1 -3 -3 -2 -3 -2 -2 -2 -2 -0 -1 -1 -1 -1 -2 -2 -1 -1 -2 -6 -7 -8 -8 -8 -7 -7 -7 -8 -8 -9 -10 -10 -9 -9 -9 -9 -9 -8 -8 -9 -10 -9 -8 -8 -9 -9 -9 -9 -9 -9 -9 -9 -10 -10
-2 -5 -3 -3 -2 -1 -1 -1 -2 -2 -2 -2 -2 -3 -3 -1 -2 -2 -4 -7 -8 -9 -9 -9 -9 -8 -8 -9 -9 -9 -11 -11 -10 -10 -11 -11 -11 -10 -10 -9 -9 -10 -10 -10 -10 -10 -11 -10 -10 -10 -10 -10 -10 -10
-3 -3 -3 -4 -3 -2 -2 -3 -2 -2 -2 -2 -2 -3 -2 -2 -1 -6 -10 -10 -10 -11 -11 -11 -11 -10 -10 -11 -11 -12 -10 -9 -10 -11 -12 -12 -11 -11 -11 -11 -12 -11 -10 -10 -10 -10 -10 -11 -11 -11 -11 -10 -10 -10
-5 -5 -4 -4 -4 -4 -3 -3 -2 -2 -2 -3 -3 -3 -2 -3 -4 -10 -11 -13 -12 -12 -13 -13 -13 -12 -13 -13 -12 -11 -11 -11 -11 -11 -11 -11 -11 -11 -11 -11 -11 -11 -11 -11 -11 -11 -11 -11 -13 -12 -11 -12 -11 -11
-5 -5 -5 -5 -6 -4 -4 -3 -3 -5 -6 -5 -4 -4 -7 -12 -14 -13 -15 -15 -14 -13 -13 -13 -14 -13 -13 -13 -12 -12 -12 -12 -12 -11 -11 -11 -11 -13 -12 -12 -12 -12 -12 -12 -12 -12 -12 -12 -12 -12 -12 -12 -12 -12
-5 -6 -5 -5 -6 -4 -4 -5 -6 -8 -9 -9 -10 -12 -13 -15 -16 -16 -16 -15 -14 -14 -15 -15 -14 -14 -14 -14 -14 -15 -14 -13 -13 -14 -14 -14 -15 -14 -14 -14 -14 -14 -14 -13 -13 -14 -13 -14 -15 -14 -14 -13 -13 -13
-7 -7 -6 -5 -4 -5 -7 -8 -8 -9 -11 -11 -12 -10 -12 -15 -17 -17 -17 -16 -16 -15 -15 -15 -15 -15 -15 -15 -15 -15 -15 -16 -15 -15 -15 -15 -15 -15 -15 -15 -15 -14 -14 -14 -14 -14 -15 -15 -15 -15 -14 -14 -14 -14
-8 -7 -7 -6 -5 -7 -8 -7 -8 -8 -10 -11 -13 -14 -15 -14 -14 -17 -18 -17 -17 -16 -16 -16 -16 -16 -16 -17 -17 -17 -16 -17 -16 -16 -16 -16 -16 -16 -16 -15 -15 -15 -15 -15 -15 -15 -15 -15 -15 -15 -16 -16 -16 -16
-9 -8 -8 -7 -6 -6 -7 -7 -7 -9 -10 -10 -12 -13 -14 -13 -14 -18 -18 -17 -17 -18 -18 -17 -17 -17 -17 -17 -17 -18 -17 -17 -17 -17 -16 -16 -16 -16 -16 -16 -16 -16 -16 -16 -16 -16 -16 -16 -16 -16 -16 -16 -17 -17

GFSWCAN_850_temp_162.txt.gz
Temp
-4 -3 -3 -3 -3 -3 -2 -2 -2 -2 -2 -2 -1 -1 -1 -0 -0 -0 1 2 2 3 5 5 6 7 7 8 7 8 6 4 3 4 4 6 7 10 10 11 10 8 7 8 8 7 7 12 12 7 10 10 9 9
-4 -3 -3 -3 -3 -3 -3 -3 -3 -2 -2 -2 -1 -1 -0 -0 -1 -0 1 1 2 2 4 3 4 4 5 4 5 4 5 3 4 3 6 8 8 9 9 8 11 8 10 10 10 9 8 9 9 9 9 9 8 8
-3 -3 -3 -3 -3 -3 -3 -3 -3 -3 -2 -1 0 0 -0 -0 -0 0 1 1 1 1 2 3 3 4 5 4 3 3 5 4 3 4 4 5 7 9 8 9 10 10 10 8 7 11 12 11 10 9 8 8 8 7
-3 -3 -3 -3 -3 -2 -2 -2 -2 -1 -1 -0 0 -0 -0 -0 1 1 0 1 1 1 2 4 3 3 3 3 3 3 3 4 3 4 4 4 5 8 8 9 9 9 7 8 9 10 11 10 10 10 8 7 7 7
-4 -3 -3 -3 -3 -2 -2 -3 -1 0 0 -0 -0 -0 0 0 1 0 -0 0 1 2 1 2 2 3 4 3 3 3 3 3 4 3 2 3 6 6 8 8 8 10 9 8 7 9 9 10 9 9 8 7 7 6
-3 -4 -3 -3 -2 -1 -1 -1 0 0 0 -0 -0 -0 0 -0 -1 -1 -0 -0 0 0 0 2 3 4 4 4 3 4 4 3 3 2 2 2 3 4 5 6 9 10 9 8 10 7 7 8 8 8 8 7 6 5
-3 -3 -3 -2 -1 -0 0 0 -0 -0 -0 -0 -0 -0 -0 -1 -1 -1 -1 0 0 -0 0 1 4 4 4 4 3 3 3 2 3 1 0 1 2 2 3 4 7 8 8 8 7 7 7 7 7 7 7 7 6 5
-2 -2 -0 -0 -0 0 0 -0 -0 -0 -0 -0 -0 -1 -1 -1 -1 -1 -0 -0 -0 -0 -0 2 4 3 1 1 2 2 1 1 1 1 0 2 3 2 3 5 7 8 7 8 7 7 7 6 6 6 6 5 5 4
-1 -1 -0 -0 -0 -0 -0 -0 -0 -0 -0 -1 -0 -1 -1 -1 -1 -1 -1 -1 -1 -1 -0 0 3 4 0 0 1 0 0 1 0 1 2 3 4 3 5 7 7 7 7 7 7 6 6 5 5 5 5 4 4 3
-1 -1 -1 -0 -0 -1 -0 -0 -0 -1 -1 -1 -1 -1 -1 -1 -1 -1 -1 -1 -1 -1 -1 -0 3 3 1 0 0 0 -0 1 3 3 3 3 6 7 6 5 5 5 5 6 6 5 5 4 4 4 3 3 3 2
-0 -0 -0 -0 -0 -1 -1 -1 -1 -1 -1 -1 -1 -2 -1 -1 -1 -1 -1 -1 -1 -0 -1 0 3 3 0 1 1 1 2 3 4 4 5 6 6 4 4 4 4 3 4 5 5 4 4 5 4 3 3 3 3 1
-0 -0 -0 -0 -0 -0 -0 -0 -1 -1 -1 -1 -0 -2 -1 -1 -1 -0 1 1 0 3 2 3 3 2 0 0 0 1 3 4 4 6 5 5 3 3 2 2 3 2 3 4 3 3 3 4 4 3 2 2 2 1
-1 -1 -1 -1 -1 -1 -1 -2 -1 -1 -1 -0 -0 -1 -1 -1 0 0 2 3 3 2 0 0 1 0 0 0 0 2 2 3 6 4 5 3 2 1 0 0 1 1 1 1 1 1 1 2 2 2 2 1 1 0
-1 -2 -1 -2 -2 -2 -2 -2 -1 -1 -0 -1 -1 -0 -0 0 1 3 2 1 1 2 2 1 0 1 0 1 1 2 2 5 4 4 4 1 -1 -1 -2 -1 -0 0 -0 0 0 0 0 0 1 1 1 1 0 -0
-2 -2 -2 -2 -2 -2 -2 -2 -2 -1 -1 -2 -2 1 1 1 1 0 -0 0 0 1 0 0 1 1 1 0 2 3 2 4 5 4 1 -1 -2 -3 -3 -2 -1 -1 -1 -1 -1 -0 -1 -1 -1 -0 -0 -0 -1 -1
-2 -2 -2 -2 -2 -2 -2 -2 -2 -1 -2 -2 -0 -1 0 0 -0 -1 -0 -0 0 0 1 1 2 2 2 3 4 4 5 5 2 -0 -2 -3 -3 -4 -4 -3 -2 -2 -1 -1 -1 -2 -1 -1 -1 -1 -1 -1 -2 -2
-2 -2 -2 -2 -2 -2 -2 -2 -2 -1 -1 -0 -1 -1 -2 -1 -1 -1 -1 -0 0 0 1 3 3 4 4 4 4 2 1 -1 -2 -3 -3 -4 -4 -4 -4 -3 -2 -2 -2 -2 -2 -2 -2 -2 -2 -2 -2 -2 -2 -2
-2 -2 -2 -2 -2 -2 -2 -2 -1 -0 -0 -1 -1 -2 -2 -2 -2 -2 -1 -1 -0 0 1 2 4 4 3 4 2 -1 -2 -2 -3 -4 -4 -4 -5 -4 -4 -3 -3 -2 -2 -2 -2 -2 -2 -2 -3 -3 -2 -2 -3 -3
-2 -1 -1 -1 -1 -2 -1 -0 0 -0 -0 -1 -1 -1 -2 -2 -2 -2 -1 -1 0 1 2 3 2 2 -1 -2 -2 -3 -3 -3 -3 -3 -4 -5 -4 -4 -4 -4 -3 -3 -3 -3 -3 -3 -3 -3 -3 -4 -4 -3 -4 -4
-0 -0 -0 -0 -1 -0 1 0 -0 1 0 -0 -1 -1 -1 -2 -2 -2 -2 -1 -0 0 -0 -0 -1 -3 -3 -5 -4 -4 -4 -4 -3 -3 -4 -4 -5 -5 -4 -4 -4 -4 -4 -4 -4 -4 -4 -4 -4 -4 -4 -4 -5 -5
-0 -0 -0 -0 -0 -0 0 0 1 0 -0 -0 -1 -1 -1 -1 -1 -1 -2 -2 -2 -2 -2 -4 -5 -6 -5 -6 -5 -6 -5 -5 -4 -5 -5 -5 -5 -5 -5 -5 -5 -5 -5 -5 -5 -5 -5 -5 -6 -6 -6 -6 -5 -5
-1 -0 -1 -1 -0 -0 -0 -0 1 0 0 -0 -0 -0 -0 -1 -1 -2 -1 -2 -3 -5 -4 -5 -6 -6 -7 -7 -7 -7 -5 -6 -6 -6 -6 -6 -6 -6 -6 -6 -6 -6 -6 -6 -6 -6 -6 -7 -7 -7 -7 -6 -6 -7
-1 -1 -1 -1 -1 -1 -1 -1 0 1 0 0 1 0 0 -0 -1 -2 -2 -4 -6 -6 -6 -6 -6 -6 -7 -7 -7 -6 -6 -6 -6 -7 -7 -7 -7 -7 -7 -7 -7 -7 -7 -7 -7 -7 -7 -7 -7 -7 -7 -7 -7 -7
-1 -1 -2 -2 -1 -2 -2 -1 1 1 1 1 1 -0 0 -0 -1 -0 -1 -4 -7 -7 -7 -7 -6 -6 -6 -6 -7 -8 -8 -7 -7 -8 -9 -8 -8 -8 -8 -9 -9 -9 -9 -8 -8 -8 -8 -8 -8 -8 -9 -8 -8 -8
-1 -3 -3 -2 -2 -1 -1 -1 -1 1 -1 -1 0 -0 -0 -1 -1 -0 -1 -5 -7 -7 -7 -7 -7 -6 -6 -7 -7 -8 -9 -9 -8 -8 -9 -9 -8 -7 -8 -9 -10 -9 -9 -9 -9 -10 -10 -10 -10 -10 -10 -10 -10 -10
-2 -4 -2 -2 -1 -1 -0 -1 -1 -1 -0 -1 -1 -1 -2 -1 -1 -1 -3 -6 -7 -8 -8 -7 -7 -7 -7 -8 -8 -9 -10 -10 -9 -9 -10 -11 -10 -9 -9 -9 -9 -11 -10 -11 -11 -11 -11 -11 -11 -11 -10 -10 -10 -10
-2 -3 -2 -3 -2 -1 -1 -1 -1 -1 -1 -1 -1 -2 -1 -2 -1 -6 -8 -9 -9 -10 -10 -9 -9 -9 -9 -10 -11 -11 -11 -10 -10 -10 -11 -12 -10 -10 -11 -11 -12 -11 -11 -11 -11 -11 -12 -12 -12 -12 -11 -10 -10 -10
-3 -4 -4 -4 -3 -2 -2 -2 -2 -2 -1 -1 -2 -2 -2 -3 -5 -9 -10 -11 -11 -11 -11 -12 -11 -11 -11 -11 -12 -12 -12 -11 -10 -11 -11 -12 -12 -11 -11 -12 -12 -12 -12 -12 -13 -13 -13 -12 -12 -13 -12 -12 -11 -11
-4 -4 -4 -4 -5 -3 -3 -2 -2 -4 -5 -4 -3 -3 -7 -11 -12 -12 -13 -13 -12 -12 -12 -12 -13 -13 -13 -13 -13 -13 -12 -11 -11 -11 -10 -10 -12 -14 -13 -13 -13 -13 -13 -13 -14 -14 -14 -13 -13 -13 -14 -14 -13 -13
-5 -5 -5 -5 -5 -4 -3 -5 -5 -7 -8 -8 -9 -10 -12 -14 -15 -14 -14 -13 -12 -12 -12 -13 -13 -12 -12 -12 -13 -14 -13 -12 -12 -13 -13 -14 -14 -14 -14 -14 -14 -14 -14 -14 -14 -14 -15 -15 -14 -15 -15 -15 -15 -14
-7 -6 -6 -5 -4 -4 -7 -7 -8 -9 -9 -10 -9 -9 -11 -14 -16 -16 -15 -14 -14 -14 -14 -14 -14 -14 -14 -13 -13 -13 -15 -16 -14 -14 -14 -16 -16 -16 -15 -15 -15 -15 -15 -15 -15 -16 -16 -16 -16 -16 -16 -16 -16 -16
-7 -6 -6 -6 -6 -7 -7 -7 -7 -7 -9 -9 -11 -12 -13 -12 -13 -16 -16 -16 -15 -15 -15 -15 -15 -15 -15 -15 -15 -15 -15 -15 -15 -15 -15 -15 -15 -16 -16 -16 -16 -17 -17 -16 -16 -16 -16 -17 -17 -17 -17 -17 -17 -17
-7 -7 -7 -7 -6 -6 -7 -7 -6 -7 -8 -9 -10 -11 -12 -12 -13 -17 -17 -16 -16 -16 -16 -16 -16 -16 -16 -16 -17 -17 -16 -16 -16 -16 -16 -16 -16 -16 -16 -16 -17 -17 -17 -17 -17 -17 -16 -16 -17 -17 -17 -17 -17 -17

GFSWCAN_850_temp_165.txt.gz
Temp
-4 -4 -4 -3 -3 -3 -3 -3 -2 -2 -3 -2 -1 -1 -1 -1 -0 -0 1 0 0 2 4 4 4 6 7 7 4 7 5 4 2 3 3 3 4 6 7 8 8 5 5 3 4 3 4 8 9 7 5 6 8 8
-4 -4 -3 -3 -3 -3 -3 -3 -3 -3 -2 -2 -2 -1 -1 -1 -1 -0 -1 1 1 1 3 3 4 4 4 5 6 6 5 4 4 2 2 3 4 5 7 5 9 5 6 4 5 4 7 8 8 8 8 8 8 8
-4 -3 -3 -3 -3 -3 -3 -3 -3 -3 -3 -3 -2 -1 -1 -1 -1 -0 -0 0 0 1 3 4 4 5 4 4 4 5 5 4 3 4 3 4 4 4 4 5 6 7 8 6 6 7 6 6 8 8 8 8 8 7
-4 -3 -3 -3 -3 -3 -3 -3 -3 -3 -3 -3 -3 -2 -1 -1 -0 -0 -1 -0 0 2 1 3 4 4 5 4 4 4 4 4 4 3 3 3 3 5 4 5 5 6 5 4 4 5 7 9 8 8 8 8 8 7
-4 -4 -4 -3 -3 -3 -3 -3 -3 -3 -3 -3 -3 -2 -1 -0 0 -1 -0 -0 0 1 0 2 3 4 3 3 3 3 3 3 3 3 1 2 4 4 4 4 3 7 6 3 3 7 7 8 8 9 9 8 7 7
-4 -4 -4 -3 -3 -3 -3 -3 -3 -2 -3 -3 -2 -1 -1 0 -0 -1 -1 -0 -0 0 1 -2 3 3 4 4 3 3 3 3 3 3 2 2 3 3 -0 2 7 8 8 7 6 7 7 7 7 6 7 8 7 6
-4 -4 -4 -3 -3 -3 -2 -2 -2 -2 -2 -0 0 -0 -0 -1 -1 -1 -1 1 1 -0 1 -1 1 3 4 4 3 3 3 3 3 3 1 1 2 3 2 2 6 6 6 7 7 6 6 7 7 7 7 7 6 6
-3 -3 -3 -3 -3 -3 -2 -2 -2 -0 -1 -0 -0 -0 -0 -1 -1 -1 -0 -0 -0 -0 1 -2 -1 2 2 2 2 2 2 2 1 1 0 1 2 2 2 3 4 6 7 7 7 7 7 6 6 6 6 6 6 5
-3 -2 -2 -2 -2 -1 0 0 -0 -0 -1 -0 -1 -1 -1 -1 -1 -1 -0 -0 -0 0 -1 0 0 -1 1 1 1 1 1 0 1 0 1 1 2 2 3 3 5 6 6 6 6 6 6 5 5 5 5 5 5 4
0 0 0 -0 -0 -0 -0 -0 -1 -1 -0 -1 -1 -1 -1 -1 -1 -1 -1 -1 -1 -1 -2 -1 1 -1 1 0 0 -0 -0 1 1 1 1 2 2 4 5 5 5 4 4 5 5 5 5 5 4 4 4 4 4 4
-0 -0 -0 -0 -0 -0 -0 -0 -0 -0 -1 -1 -2 -2 -2 -1 -1 -1 -2 -2 -1 -1 -1 -1 1 -0 0 0 0 -0 1 1 3 3 3 2 1 2 3 3 3 3 3 3 4 4 5 4 4 4 3 3 3 3
-1 -1 -1 -1 -1 -1 -1 -1 -1 -0 0 1 -1 -2 -1 -1 -1 -2 -1 -1 -0 0 -0 -1 1 2 0 1 0 -0 1 1 3 2 2 2 1 1 1 1 1 2 2 2 2 3 3 3 4 4 3 3 3 2
-1 -1 -1 -1 -1 -1 -1 -1 -0 1 1 1 1 -1 -2 -2 -1 -2 -1 1 -1 1 0 1 1 0 -0 0 0 0 1 2 3 1 1 0 -1 -1 -1 -0 -0 1 1 1 1 1 2 2 3 3 2 2 2 2
-1 -1 -1 -1 -1 -1 -1 -1 -0 0 1 1 -2 -3 -3 -1 -1 -1 0 -0 0 1 1 0 -0 0 -0 0 -0 1 1 1 1 -1 2 -1 -2 -2 -2 -1 -0 -0 0 0 0 0 0 1 1 1 1 1 1 1
-2 -2 -2 -2 -1 -1 -1 -1 -0 0 -0 -1 -1 -2 -2 1 0 1 0 0 0 0 1 -0 -0 0 -0 -0 -0 1 0 1 1 -0 -1 -2 -3 -3 -3 -2 -2 -1 -1 -1 -1 -1 -1 -1 -1 0 0 0 0 -0
-2 -2 -2 -2 -1 -1 -1 -1 -1 -0 -1 -1 -1 -2 -1 -1 -1 -1 -1 -1 -1 -0 0 0 0 0 -0 1 1 1 2 0 -0 -2 -3 -3 -4 -4 -4 -3 -2 -2 -2 -1 -1 -2 -2 -2 -2 -1 -1 -1 -1 -1
-2 -2 -2 -2 -2 -2 -1 -1 -1 -1 -1 -1 -1 -1 -1 -1 -1 -1 -1 -1 -0 -0 0 0 1 3 2 2 2 -0 -1 -2 -3 -4 -4 -4 -4 -4 -4 -4 -3 -3 -2 -2 -2 -2 -2 -2 -2 -2 -2 -2 -2 -2
-2 -2 -2 -2 -2 -1 -1 -1 -1 -1 -0 -0 -1 -2 -1 -2 -2 -2 -1 -1 -1 -0 -0 1 3 2 0 1 -0 -2 -3 -3 -3 -4 -4 -4 -5 -5 -4 -4 -3 -3 -2 -2 -3 -3 -3 -3 -3 -3 -3 -2 -3 -3
-1 -2 -1 -1 -1 -2 -1 -1 -1 -1 -0 -1 -1 -1 -2 -2 -2 -2 -1 -1 -1 -1 -0 2 -1 -0 -2 -2 -2 -3 -3 -3 -4 -4 -4 -4 -4 -5 -5 -4 -4 -4 -3 -3 -4 -4 -4 -3 -4 -4 -4 -4 -4 -4
-1 -1 -0 -1 -1 -1 0 0 -0 0 -0 -1 -1 -1 -1 -2 -2 -2 -1 -1 -1 -0 -2 -2 -3 -4 -4 -4 -4 -4 -3 -3 -3 -4 -4 -4 -5 -5 -5 -5 -4 -5 -5 -4 -4 -4 -4 -5 -5 -5 -5 -5 -5 -5
-0 -0 -0 -0 -1 -0 -0 -0 1 0 -0 -1 -1 -1 -1 -1 -1 -2 -2 -2 -3 -3 -3 -5 -5 -5 -5 -5 -4 -4 -4 -4 -4 -4 -5 -5 -5 -5 -5 -5 -5 -6 -6 -6 -6 -6 -5 -6 -6 -7 -6 -6 -6 -6
-1 -0 -1 -1 -0 -0 -0 -0 -0 0 0 -0 -1 -1 -1 -1 -1 -2 -1 -3 -4 -5 -4 -5 -5 -5 -5 -5 -6 -6 -6 -6 -5 -6 -6 -6 -5 -6 -6 -6 -6 -6 -6 -6 -7 -7 -7 -7 -8 -7 -7 -7 -7 -8
-1 -1 -1 -1 -1 -1 -1 -1 -0 1 -2 -0 0 -0 -1 -1 -1 -1 -3 -5 -6 -6 -5 -5 -6 -6 -6 -6 -6 -6 -6 -6 -6 -7 -7 -7 -7 -7 -7 -8 -7 -7 -7 -7 -7 -7 -7 -8 -8 -8 -8 -9 -8 -8
-1 -1 -1 -2 -2 -3 -2 -2 0 1 -0 -1 -1 -2 -2 -1 -1 -1 -3 -5 -7 -6 -6 -6 -6 -7 -7 -7 -7 -7 -7 -7 -8 -8 -8 -8 -8 -8 -8 -9 -9 -9 -9 -8 -8 -8 -8 -8 -9 -9 -9 -10 -9 -9
-2 -3 -3 -5 -2 -2 -4 -4 -4 -2 -4 -3 -2 -4 -3 -1 -5 -5 -5 -7 -7 -7 -7 -6 -6 -6 -6 -7 -7 -8 -8 -8 -8 -8 -9 -9 -8 -8 -9 -9 -9 -9 -9 -9 -9 -10 -10 -11 -11 -11 -11 -10 -10 -10
-6 -3 -4 -2 -3 -2 -3 -4 -4 -5 -3 -4 -4 -2 -2 -5 -5 -6 -6 -6 -7 -7 -7 -7 -7 -7 -7 -8 -9 -9 -8 -9 -9 -9 -9 -9 -9 -8 -9 -10 -10 -10 -10 -10 -11 -11 -12 -12 -12 -12 -11 -11 -10 -10
-7 -5 -3 -3 -3 -2 -5 -1 -1 -3 -5 -6 -5 -6 -6 -7 -7 -8 -9 -9 -9 -8 -8 -8 -8 -8 -9 -9 -9 -9 -9 -10 -10 -10 -10 -10 -10 -10 -10 -10 -10 -11 -11 -11 -11 -12 -12 -12 -12 -12 -12 -11 -11 -11
-3 -4 -7 -4 -4 -3 -6 -6 -5 -5 -5 -3 -2 -6 -7 -9 -9 -11 -11 -11 -11 -10 -10 -9 -9 -9 -10 -10 -10 -11 -12 -11 -11 -11 -12 -12 -12 -11 -11 -11 -12 -12 -12 -12 -13 -13 -14 -13 -12 -13 -14 -13 -13 -13
-4 -5 -5 -7 -5 -4 -3 -6 -5 -5 -6 -5 -7 -7 -9 -12 -12 -12 -12 -12 -12 -11 -11 -12 -12 -11 -11 -12 -11 -11 -11 -11 -11 -11 -11 -13 -13 -13 -13 -13 -13 -13 -13 -13 -13 -14 -15 -14 -14 -15 -15 -14 -14 -14
-6 -6 -6 -6 -10 -9 -5 -6 -6 -7 -7 -7 -7 -9 -11 -13 -13 -13 -13 -13 -12 -12 -12 -12 -12 -12 -12 -12 -12 -12 -12 -12 -12 -12 -12 -13 -14 -14 -14 -14 -14 -14 -13 -14 -14 -14 -15 -15 -15 -16 -16 -16 -16 -15
-7 -7 -6 -6 -6 -6 -7 -7 -8 -8 -9 -9 -9 -9 -12 -14 -14 -14 -14 -13 -13 -13 -13 -13 -13 -13 -13 -13 -13 -14 -13 -13 -14 -13 -14 -14 -14 -14 -14 -14 -15 -15 -14 -15 -15 -15 -15 -15 -15 -16 -16 -16 -17 -17
-7 -7 -8 -11 -7 -7 -7 -7 -7 -8 -9 -9 -11 -11 -12 -13 -14 -15 -15 -15 -14 -14 -14 -14 -14 -14 -14 -14 -14 -14 -15 -15 -15 -15 -15 -15 -15 -15 -15 -15 -16 -16 -15 -16 -15 -15 -16 -16 -16 -16 -17 -17 -17 -17
-8 -7 -7 -8 -8 -8 -8 -8 -7 -7 -8 -9 -11 -11 -13 -13 -15 -16 -16 -16 -16 -15 -16 -16 -16 -16 -16 -16 -16 -16 -16 -16 -16 -16 -16 -16 -16 -16 -16 -16 -16 -16 -16 -16 -16 -16 -16 -17 -17 -17 -17 -17 -18 -18

GFSWCAN_850_temp_171.txt.gz
Temp
-3 -3 -3 -3 -3 -3 -3 -3 -2 -2 -2 -2 -2 -2 -1 -2 -2 -2 -2 -1 -1 -1 -0 1 1 2 3 4 2 4 2 2 1 2 2 3 2 4 5 6 6 4 3 2 3 4 4 7 6 5 5 7 7 7
-3 -3 -3 -4 -3 -3 -3 -3 -3 -3 -2 -2 -2 -2 -2 -2 -2 -2 -2 -1 -1 -2 -0 0 1 2 2 3 4 4 3 3 4 2 2 2 2 3 4 4 6 4 5 4 4 3 5 7 7 8 8 7 8 8
-4 -3 -4 -4 -4 -4 -4 -3 -3 -3 -3 -3 -3 -2 -2 -2 -2 -2 -2 -2 -2 -1 -1 -1 1 2 2 3 3 4 3 5 4 4 2 3 3 2 2 3 3 3 4 3 3 4 4 5 6 7 7 7 8 7
-4 -4 -4 -4 -4 -4 -3 -3 -3 -3 -3 -3 -3 -2 -2 -3 -2 -2 -3 -2 -2 -2 -1 1 2 2 3 3 2 3 4 4 5 3 2 2 2 3 2 3 3 4 3 3 3 4 5 6 7 7 8 8 8 8
-5 -5 -4 -4 -4 -4 -4 -3 -3 -3 -3 -3 -3 -3 -3 -3 -3 -3 -2 -1 -2 -1 -1 0 2 3 3 3 3 3 4 4 3 1 -1 1 2 1 1 1 1 5 4 2 2 5 5 6 6 7 7 7 7 7
-5 -5 -4 -4 -4 -4 -3 -3 -3 -3 -3 -3 -3 -3 -3 -3 -3 -3 -3 -0 -1 -1 -1 -1 2 3 3 3 3 3 3 3 3 2 1 2 2 3 0 0 3 6 6 6 5 6 5 5 6 6 6 6 7 7
-4 -4 -4 -4 -4 -3 -3 -3 -3 -3 -3 -3 -3 -3 -3 -3 -3 -3 -2 -1 0 -1 -1 -1 -0 2 2 3 3 3 3 3 3 2 -0 1 2 2 -1 1 3 5 6 6 6 5 4 6 6 6 6 6 6 6
-4 -4 -4 -4 -4 -4 -4 -4 -3 -3 -3 -3 -3 -3 -3 -3 -3 -3 0 -1 -1 -1 -1 -2 -2 1 1 2 2 3 2 2 2 2 1 0 0 1 -1 2 4 4 4 4 5 5 5 6 6 6 6 6 6 6
-4 -4 -4 -4 -4 -4 -4 -3 -3 -3 -3 -3 -4 -4 -3 -3 -3 -2 -1 -1 -1 -1 -1 -2 -2 -1 1 0 1 1 1 0 0 1 1 1 1 1 2 3 3 3 3 4 4 5 5 5 5 5 5 5 5 5
-4 -4 -3 -3 -3 -3 -3 -3 -3 -3 -3 -3 -4 -3 -3 -1 -1 -1 -1 -1 -1 -1 -1 -3 -0 -3 0 -0 0 -0 -0 0 0 1 1 1 0 3 4 4 4 3 3 4 4 4 5 4 5 5 4 4 4 4
-3 -4 -4 -3 -3 -3 -3 -3 -3 -3 -3 -3 -3 -2 -1 -1 -1 -2 -2 -2 -2 -2 -2 -1 -1 -2 -1 -1 -0 -1 0 0 1 1 1 2 1 -0 2 2 2 2 2 3 3 3 2 2 3 4 4 4 4 3
-2 -3 -3 -3 -3 -3 -3 -3 -3 -3 -2 -1 -0 -1 -1 -1 -2 -2 -2 -1 -1 -1 -2 -1 -1 -1 -1 -0 -2 -1 0 0 1 0 1 2 0 -1 -1 -0 0 1 1 1 1 1 2 2 2 3 3 4 3 3
-1 -0 -0 -1 -2 -3 -2 -2 -1 -0 1 -1 1 -1 -1 -2 -3 -2 -2 -1 -1 -2 -3 -2 -1 -0 -0 0 -1 -0 0 1 -0 1 2 0 -2 -2 -2 -1 -1 -1 -0 0 0 0 0 1 1 2 3 3 3 2
-1 -2 -2 -2 -1 -2 -2 -1 -1 -1 0 1 -1 -3 -6 -3 -4 -4 -3 -3 -1 -0 -1 -1 -1 -0 -1 -1 -0 0 0 0 0 -0 1 -1 -3 -3 -2 -2 -2 -2 -1 -0 -0 -0 -1 -0 0 1 2 2 1 2
-1 -1 -1 -2 -2 -1 -1 -1 1 2 1 0 -1 -6 -4 -3 -2 -1 -1 -0 -1 -1 0 -0 -0 -1 -0 0 -0 0 0 -0 -1 -1 -2 -3 -3 -3 -3 -3 -3 -2 -2 -1 -2 -2 -2 -1 -1 -1 0 1 1 1
-1 -1 -1 -2 -1 -1 -1 0 1 2 1 -0 -1 -4 -3 -5 -5 -2 -2 -2 -1 -1 -1 -1 -0 0 -0 0 0 0 1 -1 -3 -3 -4 -3 -4 -4 -4 -3 -3 -4 -4 -3 -2 -2 -2 -2 -2 -2 -1 -1 -1 -1
-1 -1 -1 -1 -0 0 1 1 1 1 -0 -1 -3 -2 -2 -3 -3 -2 -1 -1 -1 -1 -1 -0 0 1 -1 0 1 -1 -3 -3 -4 -4 -4 -4 -4 -4 -4 -4 -4 -4 -4 -3 -3 -3 -3 -3 -3 -3 -2 -3 -2 -2
-1 -1 -1 -1 -0 -0 0 0 -0 -1 -1 -1 -4 -1 -2 -1 -2 -3 -2 -2 -2 -1 -1 0 -0 -0 -1 1 -2 -4 -4 -4 -4 -4 -4 -4 -4 -4 -4 -4 -4 -4 -4 -4 -4 -4 -4 -4 -4 -4 -4 -4 -4 -3
-1 -1 -1 -1 -1 -0 -0 -0 -1 -1 -1 -1 -1 -2 -2 -2 -2 -2 -2 -2 -2 -2 -2 -1 -1 -1 -3 -4 -4 -4 -4 -4 -5 -5 -5 -5 -5 -5 -5 -4 -4 -4 -4 -4 -4 -4 -5 -5 -5 -5 -5 -5 -5 -5
-1 -1 -1 -0 -1 -1 -0 -1 -1 -1 -1 -1 -2 -2 -2 -2 -2 -2 -2 -2 -2 -2 -3 -3 -3 -5 -4 -4 -3 -3 -3 -4 -4 -5 -5 -5 -5 -5 -5 -5 -5 -5 -5 -5 -5 -5 -5 -5 -5 -6 -6 -6 -6 -6
-1 -1 -0 -1 -1 -1 -1 -1 -1 -1 -1 -1 -1 -2 -1 -2 -2 -2 -2 -3 -3 -4 -4 -5 -5 -5 -4 -4 -3 -3 -3 -3 -3 -4 -4 -5 -5 -5 -5 -5 -5 -5 -5 -6 -6 -6 -6 -6 -7 -8 -8 -8 -8 -8
-1 -1 -1 -1 -1 -1 -1 -1 -1 -1 -1 -1 -1 -1 -2 -4 -2 -2 -2 -4 -6 -5 -5 -5 -5 -5 -4 -4 -4 -4 -4 -4 -4 -4 -5 -5 -5 -5 -6 -6 -6 -6 -6 -6 -7 -7 -7 -7 -8 -8 -8 -8 -8 -8
-1 -1 -2 -1 -2 -2 -2 -2 -1 -1 -3 -2 -2 -2 -3 -3 -2 -2 -6 -6 -6 -6 -5 -5 -5 -5 -5 -5 -5 -5 -5 -5 -5 -5 -6 -6 -6 -6 -7 -7 -7 -7 -7 -7 -8 -8 -8 -8 -8 -8 -8 -8 -9 -9
-2 -2 -2 -2 -3 -5 -3 -2 -2 -2 -2 -3 -3 -4 -3 -3 -3 -4 -5 -7 -7 -6 -6 -6 -6 -6 -6 -6 -6 -6 -6 -6 -7 -7 -7 -7 -7 -8 -8 -8 -9 -9 -8 -8 -9 -9 -9 -9 -9 -9 -9 -10 -10 -10
-2 -4 -4 -10 -3 -5 -10 -9 -8 -5 -7 -7 -4 -6 -6 -3 -8 -7 -7 -7 -7 -7 -7 -7 -7 -7 -7 -7 -7 -7 -7 -8 -7 -8 -8 -8 -8 -8 -9 -9 -9 -9 -9 -9 -9 -9 -9 -10 -10 -10 -10 -10 -10 -11
-9 -5 -6 -6 -9 -6 -5 -8 -8 -7 -8 -9 -9 -5 -4 -9 -9 -8 -9 -10 -8 -7 -7 -7 -7 -7 -7 -7 -8 -8 -8 -8 -8 -9 -9 -9 -9 -9 -9 -9 -9 -9 -10 -10 -10 -10 -10 -10 -10 -10 -11 -11 -12 -12
-11 -10 -5 -5 -5 -5 -8 -5 -4 -7 -8 -8 -8 -10 -11 -8 -10 -11 -10 -10 -9 -9 -8 -8 -8 -7 -7 -8 -8 -8 -8 -9 -9 -9 -9 -10 -10 -10 -10 -10 -11 -10 -11 -11 -11 -11 -11 -11 -12 -12 -13 -13 -13 -13
-7 -7 -13 -7 -7 -6 -12 -14 -13 -9 -8 -7 -6 -8 -9 -11 -11 -12 -11 -11 -11 -10 -10 -9 -9 -9 -9 -9 -9 -10 -10 -10 -10 -10 -10 -11 -11 -11 -11 -11 -11 -11 -11 -11 -12 -12 -12 -13 -13 -14 -14 -14 -15 -15
-7 -7 -7 -10 -8 -8 -8 -7 -7 -7 -8 -7 -12 -12 -11 -12 -13 -12 -12 -12 -12 -12 -11 -11 -11 -11 -11 -11 -11 -11 -12 -12 -12 -11 -11 -11 -12 -12 -12 -12 -12 -12 -12 -13 -13 -13 -13 -14 -14 -15 -15 -15 -16 -16
-8 -8 -8 -10 -15 -13 -8 -7 -7 -8 -8 -8 -9 -11 -13 -14 -14 -14 -14 -13 -13 -12 -12 -12 -12 -12 -12 -12 -12 -12 -12 -12 -12 -12 -12 -12 -12 -13 -13 -13 -13 -13 -13 -14 -14 -14 -15 -15 -16 -16 -16 -17 -17 -17
-9 -8 -8 -9 -10 -8 -8 -8 -8 -9 -9 -9 -11 -11 -13 -14 -15 -14 -14 -14 -13 -13 -13 -13 -13 -13 -13 -13 -13 -13 -13 -13 -13 -13 -13 -13 -14 -14 -14 -14 -14 -14 -15 -15 -15 -15 -15 -15 -16 -16 -16 -17 -17 -17
-9 -9 -10 -14 -9 -8 -9 -9 -9 -9 -10 -11 -12 -13 -14 -14 -15 -15 -16 -15 -15 -14 -14 -14 -14 -14 -14 -14 -14 -14 -14 -14 -14 -14 -14 -15 -15 -15 -15 -15 -15 -16 -16 -16 -16 -16 -16 -16 -16 -17 -17 -17 -17 -18
-10 -10 -10 -11 -11 -10 -10 -10 -11 -11 -12 -12 -13 -14 -14 -15 -16 -16 -16 -16 -16 -16 -15 -15 -15 -15 -15 -16 -16 -15 -15 -15 -15 -16 -16 -16 -16 -16 -16 -16 -16 -16 -16 -16 -16 -17 -17 -17 -17 -17 -18 -18 -18 -18

GFSWCAN_850_temp_174.txt.gz
Temp
-3 -3 -3 -3 -3 -3 -3 -2 -2 -2 -2 -1 -1 -1 -1 -2 -2 -2 -2 -2 -2 -2 -1 -1 0 1 1 1 1 3 2 1 0 1 2 2 2 3 4 5 6 5 3 2 3 3 3 6 6 5 5 7 7 7
-3 -3 -3 -3 -3 -3 -3 -3 -3 -2 -2 -2 -2 -2 -2 -2 -2 -2 -3 -2 -2 -3 -2 -1 -1 -0 0 1 1 1 2 2 2 1 1 2 2 2 3 2 5 2 4 3 3 3 3 5 4 6 6 6 7 6
-3 -3 -3 -3 -3 -3 -3 -3 -3 -3 -2 -2 -2 -2 -2 -3 -2 -3 -3 -2 -2 -3 -2 -2 -1 2 1 1 2 1 1 4 3 3 1 2 1 1 1 2 4 3 4 3 2 2 2 5 6 6 6 6 7 7
-3 -3 -3 -3 -3 -3 -4 -3 -3 -3 -3 -3 -3 -3 -2 -2 -2 -3 -3 -2 -2 -2 -3 -1 1 2 3 2 2 2 1 1 2 2 1 1 2 2 2 3 2 3 2 2 2 4 4 5 5 6 6 7 7 7
-4 -3 -3 -3 -4 -4 -4 -4 -3 -3 -3 -3 -3 -3 -3 -3 -3 -3 -3 -2 -2 -2 -3 -1 -0 2 2 2 2 2 1 0 1 1 1 1 1 1 0 0 1 3 3 1 2 5 4 5 6 6 6 6 6 6
-4 -4 -4 -4 -4 -4 -4 -4 -3 -3 -3 -3 -3 -3 -3 -3 -3 -4 -4 -2 -2 -3 -3 -1 1 2 2 2 2 1 1 1 1 2 -0 1 2 2 -1 -0 3 5 6 5 4 5 5 5 5 6 6 6 6 6
-5 -5 -5 -5 -4 -4 -4 -4 -3 -3 -3 -3 -3 -3 -3 -3 -3 -4 -3 -2 -2 -2 -3 -1 -1 1 2 1 2 2 2 1 2 2 -0 1 1 2 -0 1 3 5 5 5 6 4 4 5 4 5 5 6 6 6
-5 -5 -5 -5 -4 -4 -4 -4 -4 -3 -3 -3 -3 -3 -3 -3 -3 -4 -2 -2 -2 -3 -2 -1 -1 0 1 1 1 2 2 2 2 2 -0 -1 -0 0 0 2 3 4 4 4 4 4 4 4 4 5 5 5 5 5
-4 -4 -4 -4 -4 -4 -4 -4 -3 -3 -3 -3 -3 -4 -4 -3 -4 -3 -2 -2 -2 -2 -2 -2 -1 -1 0 -0 0 1 2 0 0 0 -0 0 -2 0 1 2 3 4 3 4 4 4 4 4 5 5 5 5 4 4
-4 -4 -4 -4 -4 -4 -4 -3 -3 -3 -3 -4 -4 -4 -4 -3 -3 -3 -2 -2 -2 -2 -2 -3 -1 -2 0 -1 -1 -1 -0 0 -0 1 1 0 1 3 3 3 3 4 3 3 3 4 4 4 4 4 4 4 4 4
-4 -4 -4 -4 -4 -4 -3 -3 -4 -4 -4 -4 -3 -3 -2 -2 -2 -2 -2 -2 -2 -2 -2 -2 -1 -2 -0 -0 -0 -0 -1 -0 1 -1 1 1 1 -0 1 1 1 2 2 3 3 2 2 2 2 2 3 3 3 3
-4 -4 -4 -3 -3 -3 -3 -3 -3 -4 -3 -3 -3 -2 -2 -2 -2 -2 -2 -2 -2 -1 -2 -2 -2 -1 -1 -0 -2 -1 -1 -1 1 -0 1 -0 0 -1 -1 -1 -1 -0 0 1 1 1 1 1 1 1 2 3 3 3
-4 -4 -4 -4 -3 -3 -3 -3 -3 -3 -3 -3 -3 -2 -2 -3 -3 -3 -3 -1 -2 -2 -3 -2 -2 -1 -1 -0 -1 -1 -1 -1 -0 1 -0 -1 -1 -2 -2 -1 -1 -1 -1 -1 -0 0 -0 -0 -0 0 1 2 2 2
-2 -3 -4 -4 -3 -3 -3 -3 -4 -4 -4 -2 -2 -4 -4 -5 -4 -3 -2 -2 -1 -2 -3 -2 -1 -1 -1 -1 -1 -0 0 -0 1 0 1 -2 -2 -3 -2 -2 -2 -2 -1 -1 -1 -1 -1 -1 -1 -1 0 1 1 0
-2 -2 -2 -3 -3 -3 -3 -2 -2 -3 -2 -2 -2 -4 -4 -3 -3 -3 -2 -2 -2 -0 -1 -1 -1 -1 -1 -1 -1 0 -0 0 0 -1 -3 -3 -3 -3 -3 -3 -3 -3 -3 -2 -2 -2 -2 -2 -2 -2 -1 -0 -0 -1
-2 -2 -2 -2 -2 -2 -2 -2 -2 -0 -1 -1 -2 -4 -4 -4 -5 -3 -2 -2 -2 -1 -1 -1 -0 -0 -0 -0 0 0 0 -1 -2 -3 -3 -3 -3 -3 -3 -3 -4 -4 -5 -3 -3 -3 -3 -3 -2 -2 -2 -2 -1 -1
-1 -2 -2 -1 -1 -1 -2 -1 -0 -0 -0 -1 -4 -3 -3 -4 -3 -1 -2 -1 -2 -2 -3 -1 -1 0 -2 0 1 -0 -3 -5 -4 -4 -4 -3 -4 -4 -4 -4 -4 -4 -4 -4 -4 -4 -4 -4 -4 -3 -3 -3 -3 -3
-1 -1 -1 -1 -1 -0 -0 0 0 -0 -1 -2 -5 -3 -3 -2 -4 -3 -2 -2 -2 -2 -1 -1 -0 -0 0 0 -1 -4 -4 -4 -4 -4 -4 -4 -4 -4 -4 -4 -4 -5 -5 -5 -4 -4 -4 -4 -4 -5 -5 -5 -4 -4
-0 -0 -0 -0 0 0 -0 -0 -0 -1 -1 -2 -2 -3 -3 -3 -3 -2 -2 -2 -2 -2 -2 -1 -0 -0 -3 -5 -5 -4 -4 -4 -5 -5 -5 -5 -5 -4 -4 -5 -5 -4 -4 -4 -5 -5 -5 -5 -5 -6 -6 -5 -5 -5
-0 -0 -0 0 0 -0 -1 -1 -1 -1 -1 -1 -2 -3 -3 -2 -2 -2 -2 -3 -3 -3 -2 -2 -3 -5 -5 -4 -4 -3 -3 -4 -4 -5 -5 -5 -5 -5 -5 -5 -5 -5 -5 -5 -6 -6 -6 -6 -6 -8 -8 -7 -7 -7
-1 -1 -1 -1 -1 -1 -1 -1 -1 -1 -1 -2 -2 -2 -2 -2 -3 -3 -3 -3 -4 -4 -4 -5 -5 -5 -4 -4 -4 -3 -3 -3 -3 -4 -5 -5 -5 -5 -5 -6 -5 -6 -6 -6 -6 -6 -6 -7 -8 -8 -9 -9 -9 -9
-1 -1 -1 -1 -1 -1 -2 -2 -2 -2 -2 -2 -2 -2 -2 -4 -3 -3 -3 -4 -6 -6 -6 -6 -6 -5 -5 -4 -4 -4 -4 -4 -4 -4 -5 -5 -6 -6 -6 -6 -6 -6 -6 -7 -7 -7 -7 -8 -8 -8 -8 -9 -9 -9
-2 -2 -2 -2 -2 -2 -2 -2 -2 -2 -4 -3 -2 -3 -3 -3 -3 -3 -6 -6 -7 -7 -6 -6 -6 -5 -5 -5 -5 -5 -5 -5 -5 -5 -5 -6 -6 -6 -7 -7 -7 -7 -7 -8 -9 -9 -9 -9 -9 -9 -9 -9 -9 -10
-2 -2 -3 -3 -3 -6 -3 -3 -2 -3 -3 -4 -4 -5 -4 -4 -4 -5 -6 -7 -7 -6 -6 -6 -6 -6 -6 -6 -6 -6 -6 -6 -6 -6 -7 -7 -7 -7 -8 -8 -9 -8 -9 -9 -9 -9 -9 -9 -9 -9 -9 -9 -10 -10
-2 -5 -4 -11 -5 -6 -10 -10 -9 -6 -7 -7 -6 -8 -7 -4 -8 -7 -8 -9 -8 -7 -7 -7 -7 -7 -7 -7 -7 -7 -7 -7 -8 -7 -8 -8 -8 -8 -9 -9 -9 -9 -9 -9 -10 -10 -10 -10 -10 -10 -10 -10 -11 -11
-7 -6 -9 -8 -10 -8 -7 -9 -8 -6 -8 -9 -9 -6 -6 -9 -7 -8 -10 -11 -10 -9 -8 -8 -7 -7 -7 -7 -8 -8 -8 -8 -8 -8 -8 -9 -9 -9 -9 -9 -10 -10 -10 -10 -10 -10 -10 -10 -11 -11 -11 -12 -13 -13
-13 -12 -7 -6 -6 -6 -10 -7 -6 -8 -9 -8 -6 -7 -9 -8 -11 -12 -11 -11 -11 -10 -10 -9 -8 -8 -8 -8 -9 -9 -9 -9 -9 -9 -9 -9 -10 -10 -10 -10 -10 -11 -11 -11 -11 -11 -11 -12 -12 -13 -13 -13 -14 -14
-8 -8 -14 -8 -8 -8 -13 -15 -13 -9 -9 -8 -7 -10 -9 -10 -10 -12 -12 -11 -11 -11 -11 -10 -10 -9 -9 -10 -10 -10 -10 -10 -10 -11 -11 -11 -11 -11 -11 -11 -12 -12 -12 -11 -12 -12 -12 -13 -13 -14 -15 -15 -15 -15
-8 -8 -8 -11 -9 -9 -9 -10 -9 -8 -8 -8 -13 -13 -12 -13 -13 -13 -13 -12 -12 -12 -12 -12 -11 -11 -11 -11 -11 -11 -11 -11 -11 -11 -11 -11 -12 -12 -12 -12 -13 -12 -12 -13 -13 -13 -13 -14 -14 -15 -15 -16 -16 -16
-9 -9 -9 -12 -16 -13 -9 -9 -9 -9 -9 -9 -10 -11 -13 -14 -14 -14 -14 -13 -13 -12 -12 -12 -12 -12 -13 -12 -12 -12 -13 -12 -13 -12 -13 -12 -13 -13 -13 -13 -13 -13 -14 -14 -14 -14 -14 -15 -15 -16 -16 -16 -16 -17
-9 -9 -9 -10 -11 -9 -9 -9 -9 -9 -10 -10 -11 -12 -13 -14 -15 -15 -14 -14 -14 -14 -13 -13 -13 -13 -13 -13 -13 -13 -13 -13 -13 -13 -13 -13 -14 -14 -14 -14 -14 -14 -14 -15 -15 -15 -15 -15 -16 -16 -16 -17 -17 -17
-10 -10 -11 -15 -10 -9 -10 -10 -10 -10 -11 -11 -13 -13 -14 -14 -14 -15 -15 -15 -15 -15 -14 -14 -14 -14 -14 -14 -14 -14 -14 -14 -14 -14 -15 -15 -15 -15 -15 -15 -15 -15 -15 -15 -15 -16 -16 -16 -16 -17 -17 -17 -18 -18
-11 -12 -11 -12 -12 -11 -11 -11 -12 -13 -13 -13 -14 -14 -15 -15 -15 -15 -15 -16 -16 -16 -16 -16 -16 -16 -16 -16 -16 -16 -16 -16 -16 -16 -16 -16 -16 -16 -16 -16 -16 -16 -16 -16 -16 -16 -17 -17 -17 -17 -18 -18 -18 -19